EW4437 Weather Reports


Display with metric or nautical units.
time (UTC)temp
F
wind
direction
speed
MPH
gust
MPH
rain 1hr
in
rain 24hr
in
rain mn
in
humidity
%
barometer
mb
20260905214405 96 325 1.0 3.0 0.00 0.01 0.01 49 1009.5
20260905214304 96 325 1.0 3.0 0.00 0.01 0.01 48 1009.5
20260905214205 97 324 1.0 3.0 0.00 0.01 0.01 49 1009.5
20260905214126 97 327 1.0 3.0 0.00 0.01 0.01 50 1009.5
20260905214005 96 344 1.0 3.0 0.00 0.01 0.01 51 1009.5
20260905213904 96 349 1.0 3.0 0.00 0.01 0.01 50 1009.5
20260905213804 96 353 1.0 3.0 0.00 0.01 0.01 49 1009.5
20260905213727 96 2 1.0 3.0 0.00 0.01 0.01 50 1009.5
20260905213604 96 34 1.0 3.0 0.00 0.01 0.01 49 1009.5
20260905213505 96 47 1.0 3.0 0.00 0.01 0.01 51 1009.5
20260905213405 96 47 1.0 3.0 0.00 0.01 0.01 51 1009.5
20260905213326 96 47 1.0 3.0 0.00 0.01 0.01 51 1009.5
20260905213204 96 54 0.0 3.0 0.00 0.01 0.01 49 1009.5
20260905213104 96 51 0.0 3.0 0.00 0.01 0.01 49 1009.5
20260905213005 96 49 0.0 2.0 0.00 0.01 0.01 50 1009.5
20260905212925 96 46 0.0 2.0 0.00 0.01 0.01 49 1009.5
20260905212804 96 31 0.0 2.0 0.00 0.01 0.01 49 1009.5
20260905212725 96 13 0.0 2.0 0.00 0.01 0.01 49 1009.5
20260905212605 96 325 0.0 4.0 0.00 0.01 0.01 48 1009.5
20260905212527 96 301 1.0 4.0 0.00 0.01 0.01 51 1009.5
20260905212405 96 284 1.0 4.0 0.00 0.01 0.01 49 1009.5
20260905212306 96 288 1.0 4.0 0.00 0.01 0.01 50 1009.5
20260905212204 96 286 1.0 4.0 0.00 0.01 0.01 49 1009.5
20260905212105 96 286 1.0 4.0 0.00 0.01 0.01 48 1009.5
20260905212004 96 290 1.0 4.0 0.00 0.01 0.01 48 1009.5
20260905211904 96 286 1.0 4.0 0.00 0.01 0.01 49 1009.5
20260905211804 96 287 1.0 4.0 0.00 0.01 0.01 48 1009.5
20260905211705 96 296 1.0 4.0 0.00 0.01 0.01 49 1009.5
20260905211604 96 297 1.0 4.0 0.00 0.01 0.01 49 1009.5
20260905211526 96 301 1.0 4.0 0.00 0.01 0.01 49 1009.5
20260905211425 96 309 1.0 3.0 0.00 0.01 0.01 49 1009.5
20260905211306 96 312 1.0 3.0 0.00 0.01 0.01 49 1009.8
20260905211205 96 314 1.0 3.0 0.00 0.01 0.01 49 1009.8
20260905211104 96 314 1.0 3.0 0.00 0.01 0.01 47 1009.8
20260905211004 96 313 1.0 3.0 0.00 0.01 0.01 49 1009.8
20260905210905 96 332 1.0 3.0 0.00 0.01 0.01 50 1009.8
20260905210805 96 355 1.0 3.0 0.00 0.01 0.01 49 1009.8
20260905210705 96 337 1.0 3.0 0.00 0.01 0.01 49 1009.8
20260905210604 96 359 1.0 5.0 0.00 0.01 0.01 50 1009.8
20260905210505 96 8 1.0 5.0 0.00 0.01 0.01 50 1009.8
20260905210404 96 10 1.0 5.0 0.00 0.01 0.01 48 1009.8
20260905210305 96 10 1.0 5.0 0.00 0.01 0.01 48 1009.8
20260905210206 96 18 1.0 5.0 0.00 0.01 0.01 48 1009.8
20260905210104 96 18 1.0 5.0 0.00 0.01 0.01 48 1009.8
20260905210006 96 4 1.0 5.0 0.00 0.01 0.01 48 1009.8
20260905205904 96 337 2.0 5.0 0.00 0.01 0.01 47 1009.9
20260905205804 96 318 2.0 5.0 0.00 0.01 0.01 47 1009.9
20260905205725 96 318 2.0 5.0 0.00 0.01 0.01 47 1009.9
20260905205606 97 301 2.0 6.0 0.00 0.01 0.01 49 1009.9
20260905205506 97 298 2.0 6.0 0.00 0.01 0.01 49 1009.9
20260905205425 97 294 2.0 6.0 0.00 0.01 0.01 48 1009.9
20260905205306 96 290 2.0 6.0 0.00 0.01 0.01 49 1009.9
20260905205205 96 289 2.0 6.0 0.00 0.01 0.01 49 1009.9
20260905205104 96 291 2.0 6.0 0.00 0.01 0.01 49 1009.9
20260905205027 96 292 2.0 6.0 0.00 0.01 0.01 50 1009.9
20260905204925 96 295 2.0 6.0 0.00 0.01 0.01 49 1009.9
20260905204825 96 300 2.0 6.0 0.00 0.01 0.01 48 1009.9
20260905204704 97 305 2.0 6.0 0.00 0.01 0.01 48 1009.9
20260905204604 97 322 2.0 7.0 0.00 0.01 0.01 50 1009.9
20260905204504 97 336 1.0 7.0 0.00 0.01 0.01 47 1009.9
20260905204404 97 354 1.0 7.0 0.00 0.01 0.01 47 1010.0
20260905204305 97 22 1.0 7.0 0.00 0.01 0.01 49 1010.0
20260905204205 97 29 1.0 7.0 0.00 0.01 0.01 48 1010.0
20260905204125 96 30 1.0 7.0 0.00 0.01 0.01 50 1010.0
20260905204004 96 37 1.0 7.0 0.00 0.01 0.01 50 1010.0
20260905203904 96 37 1.0 7.0 0.00 0.01 0.01 48 1010.0
20260905203804 96 32 1.0 7.0 0.00 0.01 0.01 49 1010.0
20260905203705 97 22 1.0 7.0 0.00 0.01 0.01 49 1010.0
20260905203605 97 337 1.0 3.0 0.00 0.01 0.01 48 1010.0
20260905203504 97 315 1.0 3.0 0.00 0.01 0.01 48 1010.0
20260905203406 97 301 1.0 6.0 0.00 0.01 0.01 48 1010.0
20260905203304 97 297 1.0 6.0 0.00 0.01 0.01 48 1010.0
20260905203205 97 295 1.0 6.0 0.00 0.01 0.01 50 1010.0
20260905203104 97 295 2.0 6.0 0.00 0.01 0.01 49 1010.0
20260905203004 97 300 2.0 6.0 0.00 0.01 0.01 47 1010.0
20260905202904 97 309 2.0 6.0 0.00 0.01 0.01 48 1010.2
20260905202805 97 312 2.0 6.0 0.00 0.01 0.01 49 1010.2
20260905202726 97 314 2.0 6.0 0.00 0.01 0.01 50 1010.2
20260905202626 97 317 2.0 6.0 0.00 0.01 0.01 50 1010.2
20260905202505 97 322 2.0 6.0 0.00 0.01 0.01 48 1010.2
20260905202404 97 340 1.0 3.0 0.00 0.01 0.01 49 1010.2
20260905202306 97 344 1.0 3.0 0.00 0.01 0.01 49 1010.2
20260905202205 97 343 1.0 3.0 0.00 0.01 0.01 48 1010.2
20260905202105 96 340 1.0 4.0 0.00 0.01 0.01 49 1010.2
20260905202004 97 327 2.0 4.0 0.00 0.01 0.01 49 1010.2
20260905201904 97 323 1.0 4.0 0.00 0.01 0.01 48 1010.2
20260905201806 97 325 1.0 4.0 0.00 0.01 0.01 48 1010.2
20260905201705 97 324 1.0 4.0 0.00 0.01 0.01 48 1010.2
20260905201605 97 323 1.0 4.0 0.00 0.01 0.01 48 1010.2
20260905201505 96 318 1.0 4.0 0.00 0.01 0.01 51 1010.2
20260905201404 96 316 1.0 4.0 0.00 0.01 0.01 49 1010.4
20260905201304 96 309 1.0 4.0 0.00 0.01 0.01 50 1010.4
20260905201205 96 305 1.0 4.0 0.00 0.01 0.01 48 1010.4
20260905201104 96 298 1.0 4.0 0.00 0.01 0.01 49 1010.4
20260905201026 96 297 1.0 4.0 0.00 0.01 0.01 49 1010.4
20260905200905 96 290 1.0 3.0 0.00 0.01 0.01 48 1010.4
20260905200805 96 290 1.0 3.0 0.00 0.01 0.01 48 1010.4
20260905200705 96 285 1.0 5.0 0.00 0.01 0.01 49 1010.4
20260905200604 96 282 1.0 5.0 0.00 0.01 0.01 50 1010.4
20260905200506 96 282 1.0 5.0 0.00 0.01 0.01 51 1010.4
20260905200404 96 285 1.0 5.0 0.00 0.01 0.01 50 1010.4
20260905200305 96 295 1.0 5.0 0.00 0.01 0.01 49 1010.4
20260905200204 96 316 1.0 5.0 0.00 0.01 0.01 48 1010.4
20260905200105 96 339 1.0 5.0 0.00 0.01 0.01 51 1010.4
20260905200006 96 340 2.0 5.0 0.00 0.01 0.01 49 1010.4
20260905195905 96 343 1.0 5.0 0.00 0.01 0.01 48 1010.5
20260905195804 96 347 1.0 5.0 0.00 0.01 0.01 47 1010.5
20260905195704 96 8 1.0 5.0 0.00 0.01 0.01 49 1010.5
20260905195605 96 28 1.0 4.0 0.00 0.01 0.01 50 1010.5
20260905195506 96 27 1.0 4.0 0.00 0.01 0.01 50 1010.5
20260905195425 96 22 1.0 4.0 0.00 0.01 0.01 47 1010.5
20260905195306 96 19 1.0 4.0 0.00 0.01 0.01 50 1010.5
20260905195225 96 19 1.0 3.0 0.00 0.01 0.01 50 1010.5
20260905195126 96 25 1.0 4.0 0.00 0.01 0.01 49 1010.5
20260905195004 96 30 1.0 4.0 0.00 0.01 0.01 49 1010.5
20260905194905 96 25 1.0 4.0 0.00 0.01 0.01 48 1010.5
20260905194804 96 12 1.0 4.0 0.00 0.01 0.01 48 1010.5
20260905194706 96 6 1.0 4.0 0.00 0.01 0.01 49 1010.5
20260905194605 96 3 1.0 4.0 0.00 0.01 0.01 49 1010.5
20260905194526 96 7 1.0 4.0 0.00 0.01 0.01 49 1010.5
20260905194404 96 15 1.0 4.0 0.00 0.01 0.01 49 1010.9
20260905194304 96 358 1.0 4.0 0.00 0.01 0.01 49 1010.9
20260905194204 97 320 1.0 4.0 0.00 0.01 0.01 49 1010.9
20260905194104 97 285 1.0 3.0 0.00 0.01 0.01 47 1010.9
20260905194026 97 280 1.0 3.0 0.00 0.01 0.01 47 1010.9
20260905193905 97 274 1.0 3.0 0.00 0.01 0.01 48 1010.9
20260905193804 97 268 1.0 2.0 0.00 0.01 0.01 48 1010.9
20260905193705 97 279 1.0 3.0 0.00 0.01 0.01 51 1010.9
20260905193625 97 278 1.0 3.0 0.00 0.01 0.01 51 1010.9
20260905193506 96 284 1.0 3.0 0.00 0.01 0.01 48 1010.9
20260905193405 96 281 1.0 3.0 0.00 0.01 0.01 48 1010.9
20260905193326 96 279 1.0 3.0 0.00 0.01 0.01 48 1010.9
20260905193204 96 284 1.0 3.0 0.00 0.01 0.01 51 1010.9
20260905193104 96 288 1.0 3.0 0.00 0.01 0.01 50 1010.9
20260905193004 96 300 1.0 3.0 0.00 0.01 0.01 49 1010.9
20260905192904 96 301 1.0 3.0 0.00 0.01 0.01 49 1010.9
20260905192804 96 316 1.0 3.0 0.00 0.01 0.01 49 1010.9
20260905192704 96 328 1.0 2.0 0.00 0.01 0.01 48 1010.9
20260905192604 96 328 0.0 2.0 0.00 0.01 0.01 48 1010.9
20260905192504 96 330 0.0 2.0 0.00 0.01 0.01 47 1010.9
20260905192404 96 40 1.0 3.0 0.00 0.01 0.01 47 1010.9
20260905192306 96 50 1.0 3.0 0.00 0.01 0.01 48 1010.9
20260905192204 96 56 1.0 3.0 0.00 0.01 0.01 49 1010.9
20260905192105 95 57 1.0 3.0 0.00 0.01 0.01 52 1010.9
20260905192025 95 61 1.0 3.0 0.00 0.01 0.01 51 1010.9
20260905191905 95 65 1.0 3.0 0.00 0.01 0.01 50 1010.9
20260905191825 95 68 1.0 3.0 0.00 0.01 0.01 50 1010.9
20260905191705 95 69 1.0 3.0 0.00 0.01 0.01 49 1010.9
20260905191605 95 70 1.0 3.0 0.00 0.01 0.01 49 1010.9
20260905191505 95 83 1.0 3.0 0.00 0.01 0.01 48 1010.9
20260905191405 96 95 1.0 3.0 0.00 0.01 0.01 50 1011.1
20260905191304 96 113 0.0 3.0 0.00 0.01 0.01 49 1011.1
20260905191205 96 142 0.0 2.0 0.00 0.01 0.01 50 1011.1
20260905191105 96 145 0.0 2.0 0.00 0.01 0.01 50 1011.1
20260905191004 95 129 0.0 2.0 0.00 0.01 0.01 51 1011.1
20260905190905 95 113 0.0 2.0 0.00 0.01 0.01 49 1011.1
20260905190804 95 100 1.0 2.0 0.00 0.01 0.01 50 1011.1
20260905190725 95 96 1.0 2.0 0.00 0.01 0.01 51 1011.1
20260905190604 95 90 1.0 2.0 0.00 0.01 0.01 49 1011.1
20260905190526 95 83 1.0 2.0 0.00 0.01 0.01 52 1011.1
20260905190404 95 72 1.0 2.0 0.00 0.01 0.01 51 1011.1
20260905190326 94 67 1.0 2.0 0.00 0.01 0.01 51 1011.1
20260905190225 95 58 1.0 3.0 0.00 0.01 0.01 50 1011.1
20260905190104 95 55 1.0 3.0 0.00 0.01 0.01 51 1011.1
20260905190004 95 55 1.0 5.0 0.00 0.01 0.01 51 1011.1
20260905185904 95 54 1.0 5.0 0.00 0.01 0.01 52 1011.4
20260905185805 94 53 1.0 6.0 0.00 0.01 0.01 51 1011.4
20260905185725 94 52 1.0 6.0 0.00 0.01 0.01 52 1011.4
20260905185626 94 52 2.0 6.0 0.00 0.01 0.01 52 1011.4
20260905185504 94 52 2.0 6.0 0.00 0.01 0.01 51 1011.4
20260905185406 94 52 2.0 6.0 0.00 0.01 0.01 53 1011.4
20260905185306 94 54 1.0 6.0 0.00 0.01 0.01 52 1011.4
20260905185205 94 53 1.0 6.0 0.00 0.01 0.01 51 1011.4
20260905185104 94 52 1.0 6.0 0.00 0.01 0.01 50 1011.4
20260905185004 95 50 1.0 6.0 0.00 0.01 0.01 49 1011.4
20260905184904 95 48 1.0 6.0 0.00 0.01 0.01 49 1011.4
20260905184805 95 42 1.0 6.0 0.00 0.01 0.01 51 1011.4
20260905184704 95 40 1.0 3.0 0.00 0.01 0.01 51 1011.4
20260905184604 95 56 1.0 4.0 0.00 0.01 0.01 51 1011.4
20260905184504 95 58 1.0 4.0 0.00 0.01 0.01 53 1011.4
20260905184404 95 58 1.0 4.0 0.00 0.01 0.01 50 1011.5
20260905184304 95 58 1.0 4.0 0.00 0.01 0.01 50 1011.5
20260905184204 95 58 1.0 4.0 0.00 0.01 0.01 50 1011.5
20260905184104 94 58 1.0 4.0 0.00 0.01 0.01 51 1011.5
20260905184004 94 58 1.0 4.0 0.00 0.01 0.01 51 1011.5
20260905183905 94 59 1.0 4.0 0.00 0.01 0.01 50 1011.5
20260905183805 94 52 1.0 4.0 0.00 0.01 0.01 49 1011.5
20260905183704 95 44 0.0 4.0 0.00 0.01 0.01 51 1011.5
20260905183604 95 10 0.0 2.0 0.00 0.01 0.01 50 1011.5
20260905183504 95 290 0.0 2.0 0.00 0.01 0.01 49 1011.5
20260905183404 95 270 0.0 2.0 0.00 0.01 0.01 51 1011.5
20260905183304 95 263 0.0 2.0 0.00 0.01 0.01 49 1011.5
20260905183206 95 260 0.0 2.0 0.00 0.01 0.01 51 1011.5
20260905183104 95 246 1.0 2.0 0.00 0.01 0.01 52 1011.5
20260905183005 95 221 1.0 2.0 0.00 0.01 0.01 50 1011.5
20260905182925 95 222 1.0 2.0 0.00 0.01 0.01 49 1011.5
20260905182804 95 199 0.0 2.0 0.00 0.01 0.01 48 1011.6
20260905182725 95 196 0.0 2.0 0.00 0.01 0.01 48 1011.6
20260905182604 95 194 0.0 2.0 0.00 0.01 0.01 48 1011.6
20260905182505 95 159 0.0 2.0 0.00 0.01 0.01 50 1011.6
20260905182406 95 158 0.0 2.0 0.00 0.01 0.01 51 1011.6
20260905182306 95 151 1.0 4.0 0.00 0.01 0.01 52 1011.6
20260905182205 95 156 1.0 4.0 0.00 0.01 0.01 50 1011.6
20260905182104 95 158 0.0 4.0 0.00 0.01 0.01 51 1011.6
20260905182005 95 165 0.0 4.0 0.00 0.01 0.01 50 1011.6
20260905181925 95 165 0.0 4.0 0.00 0.01 0.01 50 1011.6
20260905181805 95 164 0.0 4.0 0.00 0.01 0.01 48 1011.6
20260905181704 95 141 1.0 4.0 0.00 0.01 0.01 51 1011.6
20260905181604 95 133 1.0 4.0 0.00 0.01 0.01 48 1011.6
20260905181505 94 172 1.0 4.0 0.00 0.01 0.01 51 1011.6
20260905181405 94 242 1.0 4.0 0.00 0.01 0.01 52 1011.8
20260905181304 94 282 1.0 3.0 0.00 0.01 0.01 52 1011.8
20260905181204 94 280 1.0 3.0 0.00 0.01 0.01 51 1011.8
20260905181125 94 278 1.0 3.0 0.00 0.01 0.01 51 1011.8
20260905181005 94 255 1.0 3.0 0.00 0.01 0.01 53 1011.8
20260905180925 94 252 1.0 3.0 0.00 0.01 0.01 51 1011.8
20260905180804 94 234 1.0 4.0 0.00 0.01 0.01 49 1011.8
20260905180706 94 215 1.0 4.0 0.00 0.01 0.01 50 1011.8
20260905180605 94 200 1.0 4.0 0.00 0.01 0.01 51 1011.8
20260905180504 94 172 1.0 4.0 0.00 0.01 0.01 51 1011.8
20260905180404 94 155 1.0 4.0 0.00 0.01 0.01 51 1011.8
20260905180305 94 165 1.0 4.0 0.00 0.01 0.01 51 1011.8
20260905180225 94 167 1.0 5.0 0.00 0.01 0.01 51 1011.8
20260905180104 93 177 1.0 5.0 0.00 0.01 0.01 55 1011.8
20260905180004 93 201 1.0 5.0 0.00 0.01 0.01 55 1011.8
20260905175905 93 241 2.0 5.0 0.00 0.01 0.01 52 1012.0
20260905175804 93 258 1.0 5.0 0.00 0.01 0.01 54 1012.0
20260905175704 93 267 1.0 5.0 0.00 0.01 0.01 53 1012.0
20260905175625 93 267 1.0 5.0 0.00 0.01 0.01 53 1012.0
20260905175505 92 265 1.0 5.0 0.00 0.01 0.01 54 1012.0
20260905175405 92 258 1.0 5.0 0.00 0.01 0.01 52 1012.0
20260905175306 92 257 2.0 5.0 0.00 0.01 0.01 54 1012.0
20260905175204 92 265 2.0 4.0 0.00 0.01 0.01 54 1012.0
20260905175104 92 272 2.0 5.0 0.00 0.01 0.01 50 1012.0
20260905175026 93 269 2.0 5.0 0.00 0.01 0.01 50 1012.0
20260905174904 92 259 2.0 5.0 0.00 0.01 0.01 53 1012.0
20260905174804 92 254 2.0 5.0 0.00 0.01 0.01 53 1012.0
20260905174704 92 254 2.0 5.0 0.00 0.01 0.01 54 1012.0
20260905174604 92 255 1.0 5.0 0.00 0.01 0.01 54 1012.0
20260905174504 92 260 1.0 5.0 0.00 0.01 0.01 59 1012.0
20260905174404 92 267 1.0 5.0 0.00 0.01 0.01 59 1012.1
20260905174305 92 269 1.0 5.0 0.00 0.01 0.01 55 1012.1
20260905174204 93 245 1.0 5.0 0.00 0.01 0.01 53 1012.1
20260905174104 93 188 1.0 5.0 0.00 0.01 0.01 55 1012.1
20260905174026 93 178 1.0 5.0 0.00 0.01 0.01 54 1012.1
20260905173904 92 160 1.0 5.0 0.00 0.01 0.01 55 1012.1
20260905173804 92 160 1.0 5.0 0.00 0.01 0.01 55 1012.1
20260905173725 92 159 1.0 5.0 0.00 0.01 0.01 55 1012.1
20260905173604 92 164 1.0 5.0 0.00 0.01 0.01 54 1012.1
20260905173504 92 168 1.0 5.0 0.00 0.01 0.01 54 1012.1
20260905173404 92 171 2.0 5.0 0.00 0.01 0.01 55 1012.1
20260905173306 92 176 2.0 5.0 0.00 0.01 0.01 54 1012.1
20260905173204 92 202 1.0 5.0 0.00 0.01 0.01 53 1012.1
20260905173104 92 233 1.0 5.0 0.00 0.01 0.01 55 1012.1
20260905173025 92 243 1.0 5.0 0.00 0.01 0.01 54 1012.1
20260905172904 91 266 1.0 4.0 0.00 0.01 0.01 55 1012.1
20260905172805 91 273 1.0 5.0 0.00 0.01 0.01 58 1012.1
20260905172705 91 275 1.0 5.0 0.00 0.01 0.01 55 1012.1
20260905172625 91 276 1.0 5.0 0.00 0.01 0.01 55 1012.1
20260905172506 91 273 1.0 5.0 0.00 0.01 0.01 55 1012.1
20260905172404 91 264 1.0 5.0 0.00 0.01 0.01 55 1012.1
20260905172305 91 253 1.0 5.0 0.00 0.01 0.01 54 1012.1
20260905172204 92 228 1.0 5.0 0.00 0.01 0.01 54 1012.1
20260905172104 92 200 1.0 5.0 0.00 0.01 0.01 53 1012.1
20260905172004 92 183 1.0 5.0 0.00 0.01 0.01 55 1012.1
20260905171904 92 175 1.0 5.0 0.00 0.01 0.01 55 1012.1
20260905171804 92 160 1.0 5.0 0.00 0.01 0.01 56 1012.1
20260905171704 92 159 1.0 5.0 0.00 0.01 0.01 54 1012.1
20260905171604 92 158 1.0 5.0 0.00 0.01 0.01 54 1012.1
20260905171504 91 155 1.0 5.0 0.00 0.01 0.01 54 1012.1
20260905171405 91 153 1.0 4.0 0.00 0.01 0.01 55 1012.6
20260905171304 91 152 0.0 4.0 0.00 0.01 0.01 53 1012.6
20260905171204 91 148 0.0 4.0 0.00 0.01 0.01 54 1012.6
20260905171104 91 157 0.0 4.0 0.00 0.01 0.01 56 1012.6
20260905171005 91 169 0.0 4.0 0.00 0.01 0.01 55 1012.6
20260905170906 91 169 0.0 4.0 0.00 0.01 0.01 58 1012.6
20260905170805 91 162 1.0 5.0 0.00 0.01 0.01 58 1012.6
20260905170706 91 162 1.0 5.0 0.00 0.01 0.01 55 1012.6
20260905170604 91 159 1.0 5.0 0.00 0.01 0.01 59 1012.6
20260905170525 91 154 1.0 5.0 0.00 0.01 0.01 57 1012.6
20260905170427 90 156 1.0 5.0 0.00 0.01 0.01 56 1012.6
20260905170304 90 179 1.0 5.0 0.00 0.01 0.01 57 1012.6
20260905170204 90 206 1.0 5.0 0.00 0.01 0.01 57 1012.6
20260905170104 90 227 1.0 5.0 0.00 0.01 0.01 58 1012.6
20260905170004 90 237 1.0 5.0 0.00 0.01 0.01 59 1012.6
20260905165906 90 240 1.0 5.0 0.00 0.01 0.01 57 1012.8
20260905165804 90 262 1.0 4.0 0.00 0.01 0.01 58 1012.8
20260905165704 90 262 1.0 4.0 0.00 0.01 0.01 57 1012.8
20260905165604 90 252 1.0 4.0 0.00 0.01 0.01 59 1012.8
20260905165505 90 246 1.0 4.0 0.00 0.01 0.01 59 1012.8
20260905165404 90 232 1.0 4.0 0.00 0.01 0.01 57 1012.8
20260905165306 90 204 1.0 4.0 0.00 0.01 0.01 57 1012.8
20260905165205 90 176 1.0 4.0 0.00 0.01 0.01 58 1012.8
20260905165104 90 184 1.0 4.0 0.00 0.01 0.01 57 1012.8
20260905165004 90 193 1.0 4.0 0.00 0.01 0.01 58 1012.8
20260905164904 90 189 1.0 4.0 0.00 0.01 0.01 58 1012.8
20260905164826 90 197 1.0 4.0 0.00 0.01 0.01 58 1012.8
20260905164705 90 195 1.0 4.0 0.00 0.01 0.01 59 1012.8
20260905164605 90 191 1.0 5.0 0.00 0.01 0.01 59 1012.8
20260905164506 90 199 1.0 5.0 0.00 0.01 0.01 60 1012.8
20260905164405 90 204 1.0 5.0 0.00 0.01 0.01 60 1013.1
20260905164305 90 207 1.0 5.0 0.00 0.01 0.01 58 1013.1
20260905164205 90 208 1.0 5.0 0.00 0.01 0.01 58 1013.1
20260905164126 90 196 1.0 5.0 0.00 0.01 0.01 59 1013.1
20260905164026 90 182 1.0 5.0 0.00 0.01 0.01 59 1013.1
20260905163905 90 185 1.0 5.0 0.00 0.01 0.01 57 1013.1
20260905163825 90 180 1.0 5.0 0.00 0.01 0.01 57 1013.1
20260905163704 90 194 1.0 5.0 0.00 0.01 0.01 58 1013.1
20260905163625 90 206 1.0 5.0 0.00 0.01 0.01 58 1013.1
20260905163504 90 206 1.0 4.0 0.00 0.01 0.01 57 1013.1
20260905163427 90 211 1.0 4.0 0.00 0.01 0.01 57 1013.1
20260905163304 90 213 1.0 4.0 0.00 0.01 0.01 57 1013.1
20260905163204 89 209 0.0 4.0 0.00 0.01 0.01 59 1013.1
20260905163104 89 220 0.0 3.0 0.00 0.01 0.01 60 1013.1
20260905163004 89 226 0.0 3.0 0.00 0.01 0.01 59 1013.1
20260905162925 89 226 0.0 3.0 0.00 0.01 0.01 57 1013.1
20260905162804 89 205 0.0 3.0 0.00 0.01 0.01 61 1013.1
20260905162726 89 180 0.0 3.0 0.00 0.01 0.01 57 1013.1
20260905162604 89 149 0.0 3.0 0.00 0.01 0.01 59 1013.1
20260905162504 89 133 0.0 2.0 0.00 0.01 0.01 60 1013.1
20260905162404 89 127 0.0 2.0 0.00 0.01 0.01 59 1013.1
20260905162306 89 133 0.0 2.0 0.00 0.01 0.01 59 1013.1
20260905162205 89 134 1.0 2.0 0.00 0.01 0.01 61 1013.1
20260905162104 89 141 1.0 2.0 0.00 0.01 0.01 59 1013.1
20260905162004 89 147 1.0 2.0 0.00 0.01 0.01 59 1013.1
20260905161905 89 142 1.0 2.0 0.00 0.01 0.01 61 1013.1
20260905161805 89 141 1.0 2.0 0.00 0.01 0.01 60 1013.1
20260905161704 89 142 1.0 2.0 0.00 0.01 0.01 60 1013.1
20260905161604 88 145 1.0 2.0 0.00 0.01 0.01 60 1013.1
20260905161504 88 138 1.0 2.0 0.00 0.01 0.01 61 1013.1
20260905161405 88 141 1.0 4.0 0.00 0.01 0.01 60 1013.1
20260905161305 88 142 1.0 4.0 0.00 0.01 0.01 60 1013.1
20260905161205 88 142 1.0 4.0 0.00 0.01 0.01 60 1013.1
20260905161104 88 132 1.0 4.0 0.00 0.01 0.01 60 1013.1
20260905161025 88 130 1.0 4.0 0.00 0.01 0.01 60 1013.1
20260905160905 88 135 1.0 4.0 0.00 0.01 0.01 62 1013.1
20260905160804 88 136 1.0 4.0 0.00 0.01 0.01 64 1013.1
20260905160725 88 135 1.0 4.0 0.00 0.01 0.01 63 1013.1
20260905160604 88 129 1.0 4.0 0.00 0.01 0.01 63 1013.1
20260905160504 88 136 0.0 4.0 0.00 0.01 0.01 62 1013.1
20260905160404 87 127 0.0 2.0 0.00 0.01 0.01 62 1013.1
20260905160304 87 116 0.0 2.0 0.00 0.01 0.01 61 1013.1
20260905160226 87 137 0.0 4.0 0.00 0.01 0.01 61 1013.1
20260905160105 87 172 1.0 5.0 0.00 0.01 0.01 64 1013.1
20260905160004 87 176 1.0 5.0 0.00 0.01 0.01 63 1013.1
20260905155904 87 174 1.0 5.0 0.00 0.01 0.01 63 1013.2
20260905155805 87 175 1.0 5.0 0.00 0.01 0.01 64 1013.2
20260905155725 86 180 2.0 7.0 0.00 0.01 0.01 63 1013.2
20260905155604 86 184 2.0 8.0 0.00 0.01 0.01 62 1013.2
20260905155505 86 184 2.0 8.0 0.00 0.01 0.01 65 1013.2
20260905155405 86 184 2.0 8.0 0.00 0.01 0.01 65 1013.2
20260905155306 86 184 2.0 8.0 0.00 0.01 0.01 63 1013.2
20260905155205 86 184 2.0 8.0 0.00 0.01 0.01 63 1013.2
20260905155125 86 184 2.0 8.0 0.00 0.01 0.01 62 1013.2
20260905155004 86 182 2.0 8.0 0.00 0.01 0.01 63 1013.2
20260905154904 86 178 2.0 8.0 0.00 0.01 0.01 63 1013.2
20260905154825 86 181 2.0 8.0 0.00 0.01 0.01 64 1013.2
20260905154704 86 167 1.0 5.0 0.00 0.01 0.01 66 1013.2
20260905154625 86 165 1.0 4.0 0.00 0.01 0.01 68 1013.2
20260905154505 86 152 1.0 4.0 0.00 0.01 0.01 69 1013.2
20260905154404 85 149 1.0 4.0 0.00 0.01 0.01 66 1013.5
20260905154304 85 148 1.0 4.0 0.00 0.01 0.01 69 1013.5
20260905154226 85 146 1.0 5.0 0.00 0.01 0.01 69 1013.5
20260905154104 85 147 2.0 5.0 0.00 0.01 0.01 66 1013.5
20260905154004 85 146 2.0 5.0 0.00 0.01 0.01 66 1013.5
20260905153925 85 145 1.0 5.0 0.00 0.01 0.01 67 1013.5
20260905153805 84 144 1.0 6.0 0.00 0.01 0.01 68 1013.5
20260905153704 84 143 2.0 6.0 0.00 0.01 0.01 68 1013.5
20260905153604 84 145 2.0 7.0 0.00 0.01 0.01 69 1013.5
20260905153505 84 147 2.0 7.0 0.00 0.01 0.01 68 1013.5
20260905153426 84 147 2.0 7.0 0.00 0.01 0.01 67 1013.5
20260905153305 84 147 2.0 7.0 0.00 0.01 0.01 68 1013.5
20260905153204 84 149 2.0 7.0 0.00 0.01 0.01 68 1013.5
20260905153105 84 149 2.0 7.0 0.00 0.01 0.01 68 1013.5
20260905153004 84 148 2.0 7.0 0.00 0.01 0.01 68 1013.5
20260905152904 83 145 1.0 7.0 0.00 0.01 0.01 68 1013.6
20260905152804 83 141 1.0 7.0 0.00 0.01 0.01 69 1013.6
20260905152705 83 137 1.0 7.0 0.00 0.01 0.01 69 1013.6
20260905152604 83 125 1.0 7.0 0.00 0.01 0.01 69 1013.6
20260905152504 83 112 1.0 7.0 0.00 0.01 0.01 70 1013.6
20260905152404 83 106 1.0 7.0 0.00 0.01 0.01 70 1013.6
20260905152306 83 108 2.0 7.0 0.00 0.01 0.01 70 1013.6
20260905152204 83 111 2.0 7.0 0.00 0.01 0.01 70 1013.6
20260905152105 83 113 2.0 7.0 0.00 0.01 0.01 70 1013.6
20260905152005 83 116 2.0 7.0 0.00 0.01 0.01 70 1013.6
20260905151905 83 118 2.0 7.0 0.00 0.01 0.01 70 1013.6
20260905151826 83 124 2.0 7.0 0.00 0.01 0.01 70 1013.6
20260905151704 83 125 2.0 7.0 0.00 0.01 0.01 70 1013.6
20260905151604 83 132 2.0 7.0 0.00 0.01 0.01 72 1013.6
20260905151504 83 139 2.0 7.0 0.00 0.01 0.01 70 1013.6
20260905151404 82 139 2.0 7.0 0.00 0.01 0.01 70 1013.7
20260905151305 82 137 2.0 7.0 0.00 0.01 0.01 71 1013.7
20260905151204 82 137 2.0 7.0 0.00 0.01 0.01 72 1013.7
20260905151104 82 137 2.0 7.0 0.00 0.01 0.01 72 1013.7
20260905151004 82 143 2.0 7.0 0.00 0.01 0.01 71 1013.7
20260905150905 82 142 2.0 7.0 0.00 0.01 0.01 71 1013.7
20260905150804 82 141 1.0 7.0 0.00 0.01 0.01 71 1013.7
20260905150725 82 143 1.0 7.0 0.00 0.01 0.01 72 1013.7
20260905150605 82 143 1.0 6.0 0.00 0.01 0.01 71 1013.7
20260905150504 82 146 1.0 5.0 0.00 0.01 0.01 71 1013.7
20260905150427 82 146 1.0 5.0 0.00 0.01 0.01 74 1013.7
20260905150304 82 155 1.0 5.0 0.00 0.01 0.01 73 1013.7
20260905150225 82 156 1.0 5.0 0.00 0.01 0.01 73 1013.7
20260905150104 82 142 1.0 5.0 0.00 0.01 0.01 74 1013.7
20260905150004 82 118 1.0 5.0 0.00 0.01 0.01 74 1013.7
20260905145904 82 122 1.0 5.0 0.00 0.01 0.01 74 1013.6
20260905145805 82 122 1.0 5.0 0.00 0.01 0.01 74 1013.6
20260905145726 82 122 1.0 5.0 0.00 0.01 0.01 75 1013.6
20260905145604 82 103 1.0 3.0 0.00 0.01 0.01 74 1013.6
20260905145505 82 97 1.0 3.0 0.00 0.01 0.01 75 1013.6
20260905145405 82 99 1.0 3.0 0.00 0.01 0.01 75 1013.6
20260905145306 82 102 1.0 3.0 0.00 0.01 0.01 76 1013.6
20260905145204 82 115 1.0 3.0 0.00 0.01 0.01 75 1013.6
20260905145105 82 115 1.0 3.0 0.00 0.01 0.01 76 1013.6
20260905145004 82 137 0.0 3.0 0.00 0.01 0.01 78 1013.6
20260905144904 81 121 0.0 3.0 0.00 0.01 0.01 78 1013.6
20260905144806 81 124 0.0 3.0 0.00 0.01 0.01 77 1013.6
20260905144725 81 123 0.0 3.0 0.00 0.01 0.01 78 1013.6
20260905144605 81 122 1.0 5.0 0.00 0.01 0.01 77 1013.6
20260905144525 81 131 1.0 5.0 0.00 0.01 0.01 79 1013.6
20260905144405 81 135 1.0 5.0 0.00 0.01 0.01 78 1013.6
20260905144305 80 134 1.0 5.0 0.00 0.01 0.01 78 1013.6
20260905144204 80 124 1.0 5.0 0.00 0.01 0.01 78 1013.6
20260905144105 80 135 0.0 5.0 0.00 0.01 0.01 78 1013.6
20260905144005 80 135 0.0 5.0 0.00 0.01 0.01 79 1013.6
20260905143905 80 137 0.0 5.0 0.00 0.01 0.01 80 1013.6
20260905143805 80 136 1.0 5.0 0.00 0.01 0.01 79 1013.6
20260905143704 80 136 0.0 5.0 0.00 0.01 0.01 79 1013.6
20260905143605 80 130 0.0 5.0 0.00 0.01 0.01 80 1013.6
20260905143504 80 134 1.0 7.0 0.00 0.01 0.01 80 1013.6
20260905143404 80 134 1.0 7.0 0.00 0.01 0.01 80 1013.6
20260905143305 80 134 1.0 7.0 0.00 0.01 0.01 81 1013.6
20260905143204 79 132 1.0 7.0 0.00 0.01 0.01 81 1013.6
20260905143104 79 135 1.0 7.0 0.00 0.01 0.01 81 1013.6
20260905143005 79 138 1.0 7.0 0.00 0.01 0.01 82 1013.6
20260905142925 79 138 1.0 7.0 0.01 0.01 0.01 82 1013.6
20260905142804 79 137 1.0 7.0 0.01 0.01 0.01 83 1013.7
20260905142727 79 135 1.0 7.0 0.01 0.01 0.01 82 1013.7
20260905142626 78 137 1.0 7.0 0.01 0.01 0.01 82 1013.7
20260905142504 78 136 1.0 7.0 0.01 0.01 0.01 82 1013.7
20260905142405 78 135 1.0 7.0 0.01 0.01 0.01 81 1013.7
20260905142306 78 135 1.0 7.0 0.01 0.01 0.01 81 1013.7
20260905142204 78 135 1.0 7.0 0.01 0.01 0.01 81 1013.7
20260905142104 78 132 0.0 7.0 0.01 0.01 0.01 81 1013.7
20260905142025 78 124 0.0 5.0 0.01 0.01 0.01 83 1013.7
20260905141904 78 107 0.0 5.0 0.01 0.01 0.01 83 1013.7
20260905141825 78 96 0.0 5.0 0.01 0.01 0.01 83 1013.7
20260905141705 78 96 0.0 5.0 0.01 0.01 0.01 83 1013.7
20260905141604 78 95 0.0 5.0 0.01 0.01 0.01 84 1013.7
20260905141504 78 83 0.0 3.0 0.01 0.01 0.01 84 1013.7
20260905141405 78 78 0.0 3.0 0.01 0.01 0.01 85 1013.9
20260905141304 77 106 0.0 4.0 0.01 0.01 0.01 86 1013.9
20260905141204 77 113 0.0 4.0 0.01 0.01 0.01 86 1013.9
20260905141105 77 117 0.0 4.0 0.01 0.01 0.01 86 1013.9
20260905141004 77 118 1.0 4.0 0.01 0.01 0.01 86 1013.9
20260905140904 77 131 0.0 4.0 0.01 0.01 0.01 87 1013.9
20260905140804 77 148 0.0 4.0 0.01 0.01 0.01 87 1013.9
20260905140704 77 150 0.0 4.0 0.01 0.01 0.01 87 1013.9
20260905140604 76 150 0.0 4.0 0.01 0.01 0.01 88 1013.9
20260905140504 76 149 0.0 4.0 0.01 0.01 0.01 88 1013.9
20260905140425 76 149 0.0 4.0 0.01 0.01 0.01 88 1013.9
20260905140305 76 143 0.0 4.0 0.01 0.01 0.01 89 1013.9
20260905140204 76 143 0.0 4.0 0.01 0.01 0.01 89 1013.9
20260905140104 76 141 0.0 4.0 0.01 0.01 0.01 89 1013.9
20260905140004 76 111 0.0 4.0 0.01 0.01 0.01 90 1013.9
20260905135926 75 86 0.0 3.0 0.01 0.01 0.01 90 1013.9
20260905135825 75 66 1.0 5.0 0.01 0.01 0.01 90 1014.0
20260905135704 75 58 1.0 7.0 0.01 0.01 0.01 90 1014.0
20260905135604 75 56 1.0 7.0 0.01 0.01 0.01 90 1014.0
20260905135504 74 55 1.0 7.0 0.01 0.01 0.01 90 1014.0
20260905135426 74 55 1.0 7.0 0.01 0.01 0.01 90 1014.0
20260905135306 74 55 1.0 7.0 0.01 0.01 0.01 89 1014.0
20260905135205 74 55 1.0 7.0 0.01 0.01 0.01 89 1014.0
20260905135104 74 56 1.0 7.0 0.01 0.01 0.01 89 1014.0
20260905135005 74 56 1.0 7.0 0.01 0.01 0.01 88 1014.0
20260905134905 74 54 1.0 10.0 0.01 0.01 0.01 88 1014.0
20260905134805 74 56 1.0 10.0 0.01 0.01 0.01 88 1014.0
20260905134704 74 61 1.0 10.0 0.01 0.01 0.01 88 1014.0
20260905134605 74 66 1.0 10.0 0.01 0.01 0.01 88 1014.0
20260905134504 75 65 1.0 10.0 0.01 0.01 0.01 88 1014.0
20260905134404 75 63 1.0 10.0 0.01 0.01 0.01 88 1014.6
20260905134305 75 61 2.0 10.0 0.01 0.01 0.01 88 1014.6
20260905134225 75 61 2.0 10.0 0.01 0.01 0.01 88 1014.6
20260905134125 75 62 2.0 10.0 0.01 0.01 0.01 87 1014.6
20260905134004 75 61 2.0 10.0 0.01 0.01 0.01 87 1014.6
20260905133904 75 63 2.0 8.0 0.01 0.01 0.01 87 1014.6
20260905133805 75 63 2.0 8.0 0.01 0.01 0.01 87 1014.6
20260905133725 75 62 1.0 8.0 0.01 0.01 0.01 87 1014.6
20260905133625 75 58 1.0 8.0 0.01 0.01 0.01 87 1014.6
20260905133505 76 57 1.0 7.0 0.01 0.01 0.01 86 1014.6
20260905133404 76 60 0.0 7.0 0.01 0.01 0.01 87 1014.6
20260905133305 76 74 0.0 3.0 0.01 0.01 0.01 87 1014.6
20260905133225 76 112 0.0 1.0 0.01 0.01 0.01 87 1014.6
20260905133125 76 136 0.0 1.0 0.01 0.01 0.01 86 1014.6
20260905133004 76 136 0.0 1.0 0.01 0.01 0.01 86 1014.6
20260905132925 76 136 0.0 1.0 0.00 0.00 0.00 86 1014.6
20260905132804 76 268 0.0 1.0 0.00 0.00 0.00 86 1014.6
20260905132705 76 268 0.0 2.0 0.00 0.00 0.00 86 1014.6
20260905132605 76 289 0.0 4.0 0.00 0.00 0.00 86 1014.6
20260905132526 76 290 1.0 4.0 0.00 0.00 0.00 85 1014.6
20260905132404 76 291 1.0 4.0 0.00 0.00 0.00 85 1014.6
20260905132306 76 291 1.0 4.0 0.00 0.00 0.00 85 1014.6
20260905132204 76 298 1.0 4.0 0.00 0.00 0.00 84 1014.6
20260905132106 76 312 1.0 4.0 0.00 0.00 0.00 85 1014.6
20260905132005 76 313 1.0 4.0 0.00 0.00 0.00 84 1014.6
20260905131905 76 314 1.0 4.0 0.00 0.00 0.00 84 1014.6
20260905131825 76 330 1.0 4.0 0.00 0.00 0.00 84 1014.6
20260905131704 76 37 1.0 8.0 0.00 0.00 0.00 84 1014.6
20260905131605 76 50 1.0 8.0 0.00 0.00 0.00 85 1014.6
20260905131504 76 54 1.0 8.0 0.00 0.00 0.00 84 1014.6
20260905131404 76 55 2.0 8.0 0.00 0.00 0.00 84 1014.1
20260905131304 76 56 2.0 8.0 0.00 0.00 0.00 84 1014.1
20260905131204 76 56 2.0 8.0 0.00 0.00 0.00 84 1014.1
20260905131105 76 56 2.0 8.0 0.00 0.00 0.00 84 1014.1
20260905130904 76 56 2.0 8.0 0.00 0.00 0.00 83 1014.1
20260905130805 76 57 2.0 8.0 0.00 0.00 0.00 83 1014.1
20260905130705 76 57 2.0 7.0 0.00 0.00 0.00 85 1014.1
20260905130604 76 57 2.0 6.0 0.00 0.00 0.00 85 1014.1
20260905130504 76 57 2.0 6.0 0.00 0.00 0.00 85 1014.1
20260905130405 76 57 2.0 6.0 0.00 0.00 0.00 84 1014.1
20260905130305 76 56 2.0 6.0 0.00 0.00 0.00 84 1014.1
20260905130204 76 57 1.0 6.0 0.00 0.00 0.00 84 1014.1
20260905130104 76 56 1.0 6.0 0.00 0.00 0.00 84 1014.1
20260905130004 76 57 1.0 6.0 0.00 0.00 0.00 84 1014.1
20260905125905 76 58 1.0 6.0 0.00 0.00 0.00 84 1013.5
20260905125805 76 57 1.0 6.0 0.00 0.00 0.00 83 1013.5
20260905125704 76 57 0.0 6.0 0.00 0.00 0.00 84 1013.5
20260905125605 76 158 0.0 1.0 0.00 0.00 0.00 85 1013.5
20260905125505 76 159 0.0 1.0 0.00 0.00 0.00 85 1013.5
20260905125404 76 159 0.0 1.0 0.00 0.00 0.00 86 1013.5
20260905125306 76 159 0.0 1.0 0.00 0.00 0.00 85 1013.5
20260905125204 76 137 0.0 1.0 0.00 0.00 0.00 86 1013.5
20260905125104 76 137 0.0 1.0 0.00 0.00 0.00 86 1013.5
20260905125005 76 138 0.0 1.0 0.00 0.00 0.00 86 1013.5
20260905124925 76 138 0.0 1.0 0.00 0.00 0.00 87 1013.5
20260905124804 76 128 0.0 1.0 0.00 0.00 0.00 87 1013.5
20260905124704 76 128 0.0 1.0 0.00 0.00 0.00 87 1013.5
20260905124625 76 0 0.0 0.0 0.00 0.00 0.00 87 1013.5
20260905124505 75 0 0.0 0.0 0.00 0.00 0.00 87 1013.5
20260905124425 75 0 0.0 0.0 0.00 0.00 0.00 88 1013.5
20260905124304 75 156 0.0 1.0 0.00 0.00 0.00 88 1013.5
20260905124205 75 146 0.0 2.0 0.00 0.00 0.00 88 1013.5
20260905124105 75 147 0.0 2.0 0.00 0.00 0.00 88 1013.5
20260905124004 75 146 0.0 2.0 0.00 0.00 0.00 88 1013.5
20260905123904 75 146 0.0 2.0 0.00 0.00 0.00 88 1013.5
20260905123826 75 146 0.0 2.0 0.00 0.00 0.00 88 1013.5
20260905123704 75 146 0.0 2.0 0.00 0.00 0.00 88 1013.5
20260905123604 75 146 0.0 2.0 0.00 0.00 0.00 88 1013.5
20260905123504 75 146 0.0 2.0 0.00 0.00 0.00 88 1013.5
20260905123405 75 146 0.0 2.0 0.00 0.00 0.00 89 1013.5
20260905123304 75 144 0.0 2.0 0.00 0.00 0.00 89 1013.5
20260905123204 75 144 0.0 1.0 0.00 0.00 0.00 89 1013.5
20260905123104 75 144 0.0 1.0 0.00 0.00 0.00 89 1013.5
20260905123004 75 149 0.0 1.0 0.00 0.00 0.00 89 1013.5
20260905122905 75 149 0.0 1.0 0.00 0.00 0.00 90 1013.3
20260905122804 75 154 0.0 1.0 0.00 0.00 0.00 90 1013.3
20260905122705 75 154 0.0 1.0 0.00 0.00 0.00 90 1013.3
20260905122626 75 154 0.0 1.0 0.00 0.00 0.00 90 1013.3
20260905122504 75 182 0.0 2.0 0.00 0.00 0.00 90 1013.3
20260905122404 75 167 0.0 2.0 0.00 0.00 0.00 90 1013.3
20260905122325 75 167 0.0 2.0 0.00 0.00 0.00 90 1013.3
20260905122204 75 167 0.0 2.0 0.00 0.00 0.00 91 1013.3
20260905122104 75 163 0.0 2.0 0.00 0.00 0.00 91 1013.3
20260905122025 75 167 0.0 2.0 0.00 0.00 0.00 91 1013.3
20260905121904 75 164 0.0 2.0 0.00 0.00 0.00 91 1013.3
20260905121804 75 161 0.0 2.0 0.00 0.00 0.00 91 1013.3
20260905121704 75 161 0.0 2.0 0.00 0.00 0.00 91 1013.3
20260905121626 75 159 0.0 2.0 0.00 0.00 0.00 91 1013.3
20260905121505 75 126 0.0 2.0 0.00 0.00 0.00 91 1013.3
20260905121405 75 85 0.0 1.0 0.00 0.00 0.00 92 1013.1
20260905121304 75 83 0.0 1.0 0.00 0.00 0.00 92 1013.1
20260905121204 75 71 0.0 1.0 0.00 0.00 0.00 92 1013.1
20260905121104 75 71 0.0 1.0 0.00 0.00 0.00 92 1013.1
20260905121005 75 71 0.0 1.0 0.00 0.00 0.00 92 1013.1
20260905120925 75 71 0.0 1.0 0.00 0.00 0.00 92 1013.1
20260905120805 75 71 0.0 1.0 0.00 0.00 0.00 92 1013.1
20260905120704 75 71 0.0 1.0 0.00 0.00 0.00 92 1013.1
20260905120625 75 71 0.0 1.0 0.00 0.00 0.00 92 1013.1
20260905120504 75 71 0.0 1.0 0.00 0.00 0.00 92 1013.1
20260905120425 75 71 0.0 1.0 0.00 0.00 0.00 92 1013.1
20260905120304 75 71 0.0 1.0 0.00 0.00 0.00 92 1013.1
20260905120205 75 71 0.0 1.0 0.00 0.00 0.00 92 1013.1
20260905120125 75 0 0.0 0.0 0.00 0.00 0.00 92 1013.1
20260905120025 75 71 0.0 2.0 0.00 0.00 0.00 92 1013.1
20260905115904 75 71 0.0 2.0 0.00 0.00 0.00 92 1013.0
20260905115804 75 71 0.0 2.0 0.00 0.00 0.00 92 1013.0
20260905115704 75 71 0.0 2.0 0.00 0.00 0.00 92 1013.0
20260905115625 75 71 0.0 2.0 0.00 0.00 0.00 92 1013.0
20260905115505 75 71 0.0 2.0 0.00 0.00 0.00 92 1013.0
20260905115404 75 71 0.0 2.0 0.00 0.00 0.00 92 1013.0
20260905115325 75 71 0.0 2.0 0.00 0.00 0.00 92 1013.0
20260905115226 75 71 0.0 2.0 0.00 0.00 0.00 92 1013.0
20260905115104 75 71 0.0 2.0 0.00 0.00 0.00 92 1013.0
20260905115004 75 0 0.0 0.0 0.00 0.00 0.00 93 1013.0
20260905114905 75 0 0.0 0.0 0.00 0.00 0.00 93 1013.0
20260905114804 75 0 0.0 0.0 0.00 0.00 0.00 92 1013.0
20260905114704 75 0 0.0 0.0 0.00 0.00 0.00 93 1013.0
20260905114604 75 0 0.0 0.0 0.00 0.00 0.00 93 1013.0
20260905114505 75 0 0.0 0.0 0.00 0.00 0.00 93 1013.0
20260905114405 75 0 0.0 0.0 0.00 0.00 0.00 93 1012.6
20260905114305 75 71 0.0 1.0 0.00 0.00 0.00 93 1012.6
20260905114204 75 71 0.0 1.0 0.00 0.00 0.00 93 1012.6
20260905114126 75 71 0.0 1.0 0.00 0.00 0.00 93 1012.6
20260905114004 75 71 0.0 1.0 0.00 0.00 0.00 93 1012.6
20260905113904 75 71 0.0 1.0 0.00 0.00 0.00 93 1012.6
20260905113804 75 71 0.0 1.0 0.00 0.00 0.00 93 1012.6
20260905113704 75 71 0.0 1.0 0.00 0.00 0.00 93 1012.6
20260905113605 75 71 0.0 1.0 0.00 0.00 0.00 93 1012.6
20260905113505 75 71 0.0 1.0 0.00 0.00 0.00 93 1012.6
20260905113404 75 65 0.0 4.0 0.00 0.00 0.00 93 1012.6
20260905113304 75 66 0.0 4.0 0.00 0.00 0.00 93 1012.6
20260905113225 75 68 1.0 7.0 0.00 0.00 0.00 93 1012.6
20260905113104 75 64 1.0 7.0 0.00 0.00 0.00 93 1012.6
20260905113005 74 64 1.0 7.0 0.00 0.00 0.00 93 1012.6
20260905112904 74 65 2.0 7.0 0.00 0.00 0.00 93 1012.1
20260905112804 74 65 2.0 7.0 0.00 0.00 0.00 93 1012.1
20260905112705 74 65 2.0 7.0 0.00 0.00 0.00 93 1012.1
20260905112605 74 65 2.0 7.0 0.00 0.00 0.00 93 1012.1
20260905112505 74 65 2.0 7.0 0.00 0.00 0.00 94 1012.1
20260905112405 74 66 2.0 7.0 0.00 0.00 0.00 93 1012.1
20260905112306 74 65 1.0 7.0 0.00 0.00 0.00 93 1012.1
20260905112204 74 65 1.0 6.0 0.00 0.00 0.00 93 1012.1
20260905112105 74 68 1.0 4.0 0.00 0.00 0.00 93 1012.1
20260905112004 74 70 0.0 3.0 0.00 0.00 0.00 93 1012.1
20260905111904 74 69 0.0 3.0 0.00 0.00 0.00 93 1012.1
20260905111805 74 62 0.0 1.0 0.00 0.00 0.00 93 1012.1
20260905111705 74 0 0.0 0.0 0.00 0.00 0.00 93 1012.1
20260905111604 74 0 0.0 0.0 0.00 0.00 0.00 93 1012.1
20260905111505 74 0 0.0 0.0 0.00 0.00 0.00 93 1012.1
20260905111404 74 0 0.0 0.0 0.00 0.00 0.00 93 1011.9
20260905111304 74 0 0.0 0.0 0.00 0.00 0.00 93 1011.9
20260905111204 74 0 0.0 0.0 0.00 0.00 0.00 93 1011.9
20260905111104 74 0 0.0 0.0 0.00 0.00 0.00 93 1011.9
20260905111005 74 0 0.0 0.0 0.00 0.00 0.00 93 1011.9
20260905110904 74 0 0.0 0.0 0.00 0.00 0.00 93 1011.9
20260905110804 74 0 0.0 0.0 0.00 0.00 0.00 93 1011.9
20260905110704 74 0 0.0 0.0 0.00 0.00 0.00 93 1011.9
20260905110604 74 0 0.0 0.0 0.00 0.00 0.00 93 1011.9
20260905110525 74 0 0.0 0.0 0.00 0.00 0.00 93 1011.9
20260905110405 74 0 0.0 0.0 0.00 0.00 0.00 93 1011.9
20260905110304 74 0 0.0 0.0 0.00 0.00 0.00 93 1011.9
20260905110204 74 0 0.0 0.0 0.00 0.00 0.00 93 1011.9
20260905110104 74 0 0.0 0.0 0.00 0.00 0.00 93 1011.9
20260905110005 74 0 0.0 0.0 0.00 0.00 0.00 93 1011.9
20260905105905 74 0 0.0 0.0 0.00 0.00 0.00 93 1011.8
20260905105805 74 0 0.0 0.0 0.00 0.00 0.00 93 1011.8
20260905105705 74 0 0.0 0.0 0.00 0.00 0.00 93 1011.8
20260905105626 74 0 0.0 0.0 0.00 0.00 0.00 93 1011.8
20260905105505 74 0 0.0 0.0 0.00 0.00 0.00 92 1011.8
20260905105425 74 0 0.0 0.0 0.00 0.00 0.00 92 1011.8
20260905105306 74 0 0.0 0.0 0.00 0.00 0.00 92 1011.8
20260905105205 74 0 0.0 0.0 0.00 0.00 0.00 92 1011.8
20260905105105 74 0 0.0 0.0 0.00 0.00 0.00 92 1011.8
20260905105004 74 0 0.0 0.0 0.00 0.00 0.00 92 1011.8
20260905104904 74 0 0.0 0.0 0.00 0.00 0.00 93 1011.8
20260905104825 74 0 0.0 0.0 0.00 0.00 0.00 93 1011.8
20260905104704 74 0 0.0 0.0 0.00 0.00 0.00 93 1011.8
20260905104604 74 0 0.0 0.0 0.00 0.00 0.00 93 1011.8
20260905104525 74 0 0.0 0.0 0.00 0.00 0.00 93 1011.8
20260905104425 75 0 0.0 0.0 0.00 0.00 0.00 93 1011.8
20260905104304 75 0 0.0 0.0 0.00 0.00 0.00 93 1011.6
20260905104204 75 0 0.0 0.0 0.00 0.00 0.00 93 1011.6
20260905104126 75 0 0.0 0.0 0.00 0.00 0.00 93 1011.6
20260905104004 75 328 0.0 1.0 0.00 0.00 0.00 93 1011.6
20260905103926 75 330 0.0 1.0 0.00 0.00 0.00 93 1011.6
20260905103826 75 330 0.0 1.0 0.00 0.00 0.00 93 1011.6
20260905103705 75 334 0.0 1.0 0.00 0.00 0.00 93 1011.6
20260905103605 75 334 0.0 1.0 0.00 0.00 0.00 93 1011.6
20260905103504 75 334 0.0 1.0 0.00 0.00 0.00 93 1011.6
20260905103404 75 334 0.0 1.0 0.00 0.00 0.00 93 1011.6
20260905103304 75 334 0.0 1.0 0.00 0.00 0.00 93 1011.6
20260905103204 75 334 0.0 1.0 0.00 0.00 0.00 93 1011.6
20260905103104 75 334 0.0 1.0 0.00 0.00 0.00 93 1011.6
20260905103026 75 334 0.0 1.0 0.00 0.00 0.00 93 1011.6
20260905102904 74 341 0.0 1.0 0.00 0.00 0.00 93 1011.9
20260905102805 75 341 0.0 1.0 0.00 0.00 0.00 93 1011.9
20260905102704 74 0 0.0 0.0 0.00 0.00 0.00 93 1011.9
20260905102604 74 0 0.0 0.0 0.00 0.00 0.00 93 1011.9
20260905102525 75 0 0.0 0.0 0.00 0.00 0.00 93 1011.9
20260905102405 75 0 0.0 0.0 0.00 0.00 0.00 93 1011.9
20260905102306 75 0 0.0 0.0 0.00 0.00 0.00 93 1011.9
20260905102205 75 0 0.0 0.0 0.00 0.00 0.00 93 1011.9
20260905102125 75 0 0.0 0.0 0.00 0.00 0.00 93 1011.9
20260905102026 75 0 0.0 0.0 0.00 0.00 0.00 92 1011.9
20260905101904 75 0 0.0 0.0 0.00 0.00 0.00 92 1011.9
20260905101804 75 0 0.0 0.0 0.00 0.00 0.00 92 1011.9
20260905101704 75 0 0.0 0.0 0.00 0.00 0.00 92 1011.9
20260905101604 75 0 0.0 0.0 0.00 0.00 0.00 92 1011.9
20260905101525 75 0 0.0 0.0 0.00 0.00 0.00 92 1011.9
20260905101405 75 0 0.0 0.0 0.00 0.00 0.00 92 1012.0
20260905101304 75 0 0.0 0.0 0.00 0.00 0.00 92 1012.0
20260905101204 75 0 0.0 0.0 0.00 0.00 0.00 92 1012.0
20260905101105 75 0 0.0 0.0 0.00 0.00 0.00 92 1012.0
20260905101004 75 0 0.0 0.0 0.00 0.00 0.00 92 1012.0
20260905100905 75 0 0.0 0.0 0.00 0.00 0.00 92 1012.0
20260905100805 75 0 0.0 0.0 0.00 0.00 0.00 92 1012.0
20260905100704 75 0 0.0 0.0 0.00 0.00 0.00 92 1012.0
20260905100626 75 0 0.0 0.0 0.00 0.00 0.00 92 1012.0
20260905100504 75 0 0.0 0.0 0.00 0.00 0.00 92 1012.0
20260905100404 75 0 0.0 0.0 0.00 0.00 0.00 92 1012.0
20260905100304 75 0 0.0 0.0 0.00 0.00 0.00 92 1012.0
20260905100204 75 0 0.0 0.0 0.00 0.00 0.00 92 1012.0
20260905100104 75 0 0.0 0.0 0.00 0.00 0.00 92 1012.0
20260905100004 75 0 0.0 0.0 0.00 0.00 0.00 92 1012.0
20260905095905 75 0 0.0 0.0 0.00 0.00 0.00 92 1011.7
20260905095804 75 0 0.0 0.0 0.00 0.00 0.00 92 1011.7
20260905095704 75 0 0.0 0.0 0.00 0.00 0.00 92 1011.7
20260905095604 75 0 0.0 0.0 0.00 0.00 0.00 92 1011.7
20260905095504 75 0 0.0 0.0 0.00 0.00 0.00 92 1011.7
20260905095425 75 0 0.0 0.0 0.00 0.00 0.00 92 1011.7
20260905095306 75 0 0.0 0.0 0.00 0.00 0.00 92 1011.7
20260905095204 75 0 0.0 0.0 0.00 0.00 0.00 92 1011.7
20260905095104 75 0 0.0 0.0 0.00 0.00 0.00 92 1011.7
20260905095004 75 0 0.0 0.0 0.00 0.00 0.00 92 1011.7
20260905094905 75 0 0.0 0.0 0.00 0.00 0.00 92 1011.7
20260905094805 75 0 0.0 0.0 0.00 0.00 0.00 92 1011.7
20260905094725 75 0 0.0 0.0 0.00 0.00 0.00 92 1011.7
20260905094604 75 0 0.0 0.0 0.00 0.00 0.00 92 1011.7
20260905094525 75 0 0.0 0.0 0.00 0.00 0.00 92 1011.7
20260905094404 75 0 0.0 0.0 0.00 0.00 0.00 92 1011.6
20260905094304 75 0 0.0 0.0 0.00 0.00 0.00 92 1011.6
20260905094205 75 0 0.0 0.0 0.00 0.00 0.00 92 1011.6
20260905094125 75 0 0.0 0.0 0.00 0.00 0.00 92 1011.6
20260905094004 75 0 0.0 0.0 0.00 0.00 0.00 92 1011.6
20260905093925 75 0 0.0 0.0 0.00 0.00 0.00 92 1011.6
20260905093804 75 0 0.0 0.0 0.00 0.00 0.00 93 1011.6
20260905093705 75 0 0.0 0.0 0.00 0.00 0.00 93 1011.6
20260905093605 75 327 0.0 1.0 0.00 0.00 0.00 93 1011.6
20260905093505 75 327 0.0 1.0 0.00 0.00 0.00 93 1011.6
20260905093404 75 327 0.0 1.0 0.00 0.00 0.00 93 1011.6
20260905093304 75 317 0.0 1.0 0.00 0.00 0.00 93 1011.6
20260905093204 75 317 0.0 1.0 0.00 0.00 0.00 93 1011.6
20260905093104 75 317 0.0 1.0 0.00 0.00 0.00 93 1011.6
20260905093005 75 359 0.0 2.0 0.00 0.00 0.00 93 1011.6
20260905092905 75 6 0.0 2.0 0.00 0.00 0.00 93 1011.4
20260905092804 75 6 0.0 2.0 0.00 0.00 0.00 93 1011.4
20260905092704 75 357 0.0 2.0 0.00 0.00 0.00 93 1011.4
20260905092605 75 360 0.0 2.0 0.00 0.00 0.00 93 1011.4
20260905092505 75 2 0.0 2.0 0.00 0.00 0.00 93 1011.4
20260905092405 75 2 0.0 2.0 0.00 0.00 0.00 93 1011.4
20260905092306 75 8 0.0 2.0 0.00 0.00 0.00 93 1011.4
20260905092204 75 8 0.0 2.0 0.00 0.00 0.00 93 1011.4
20260905092125 75 8 0.0 2.0 0.00 0.00 0.00 93 1011.4
20260905092005 75 355 0.0 1.0 0.00 0.00 0.00 93 1011.4
20260905091904 75 339 0.0 1.0 0.00 0.00 0.00 93 1011.4
20260905091805 75 339 0.0 1.0 0.00 0.00 0.00 93 1011.4
20260905091704 75 0 0.0 0.0 0.00 0.00 0.00 93 1011.4
20260905091604 75 0 0.0 0.0 0.00 0.00 0.00 93 1011.4
20260905091505 75 0 0.0 0.0 0.00 0.00 0.00 93 1011.4
20260905091405 75 0 0.0 0.0 0.00 0.00 0.00 92 1011.0
20260905091326 75 0 0.0 0.0 0.00 0.00 0.00 92 1011.0
20260905091204 75 0 0.0 0.0 0.00 0.00 0.00 92 1011.0
20260905091104 75 0 0.0 0.0 0.00 0.00 0.00 92 1011.0
20260905091005 75 0 0.0 0.0 0.00 0.00 0.00 92 1011.0
20260905090905 75 0 0.0 0.0 0.00 0.00 0.00 92 1011.0
20260905090804 75 0 0.0 0.0 0.00 0.00 0.00 92 1011.0
20260905090704 75 0 0.0 0.0 0.00 0.00 0.00 92 1011.0
20260905090605 75 0 0.0 0.0 0.00 0.00 0.00 92 1011.0
20260905090505 75 0 0.0 0.0 0.00 0.00 0.00 92 1011.0
20260905090404 75 0 0.0 0.0 0.00 0.00 0.00 92 1011.0
20260905090304 75 0 0.0 0.0 0.00 0.00 0.00 92 1011.0
20260905090204 75 0 0.0 0.0 0.00 0.00 0.00 92 1011.0
20260905090105 75 0 0.0 0.0 0.00 0.00 0.00 92 1011.0
20260905090004 75 0 0.0 0.0 0.00 0.00 0.00 92 1011.0
20260905085904 75 0 0.0 0.0 0.00 0.00 0.00 92 1011.1
20260905085805 75 0 0.0 0.0 0.00 0.00 0.00 92 1011.1
20260905085725 75 0 0.0 0.0 0.00 0.00 0.00 92 1011.1
20260905085605 75 0 0.0 0.0 0.00 0.00 0.00 92 1011.1
20260905085525 75 0 0.0 0.0 0.00 0.00 0.00 92 1011.1
20260905085405 75 0 0.0 0.0 0.00 0.00 0.00 92 1011.1
20260905085306 75 0 0.0 0.0 0.00 0.00 0.00 92 1011.1
20260905085205 75 0 0.0 0.0 0.00 0.00 0.00 92 1011.1
20260905085125 75 0 0.0 0.0 0.00 0.00 0.00 92 1011.1
20260905085004 75 0 0.0 0.0 0.00 0.00 0.00 92 1011.1
20260905084905 75 0 0.0 0.0 0.00 0.00 0.00 92 1011.1
20260905084826 75 0 0.0 0.0 0.00 0.00 0.00 92 1011.1
20260905084704 75 0 0.0 0.0 0.00 0.00 0.00 92 1011.1
20260905084605 75 0 0.0 0.0 0.00 0.00 0.00 92 1011.1
20260905084505 75 0 0.0 0.0 0.00 0.00 0.00 92 1011.1
20260905084405 75 0 0.0 0.0 0.00 0.00 0.00 92 1011.0
20260905084304 75 0 0.0 0.0 0.00 0.00 0.00 92 1011.0
20260905084204 75 0 0.0 0.0 0.00 0.00 0.00 92 1011.0
20260905084125 75 0 0.0 0.0 0.00 0.00 0.00 92 1011.0
20260905084004 75 0 0.0 0.0 0.00 0.00 0.00 92 1011.0
20260905083905 75 0 0.0 0.0 0.00 0.00 0.00 92 1011.0
20260905083825 75 0 0.0 0.0 0.00 0.00 0.00 92 1011.0
20260905083704 75 0 0.0 0.0 0.00 0.00 0.00 92 1011.0
20260905083604 76 0 0.0 0.0 0.00 0.00 0.00 92 1011.0
20260905083504 76 0 0.0 0.0 0.00 0.00 0.00 92 1011.0
20260905083404 76 0 0.0 0.0 0.00 0.00 0.00 92 1011.0
20260905083304 76 0 0.0 0.0 0.00 0.00 0.00 92 1011.0
20260905083205 76 0 0.0 0.0 0.00 0.00 0.00 92 1011.0
20260905083104 76 0 0.0 0.0 0.00 0.00 0.00 91 1011.0
20260905083004 76 0 0.0 0.0 0.00 0.00 0.00 91 1011.0
20260905082925 76 0 0.0 0.0 0.00 0.00 0.00 91 1011.0
20260905082825 76 0 0.0 0.0 0.00 0.00 0.00 91 1011.1
20260905082704 76 0 0.0 0.0 0.00 0.00 0.00 91 1011.1
20260905082604 76 0 0.0 0.0 0.00 0.00 0.00 91 1011.1
20260905082526 76 0 0.0 0.0 0.00 0.00 0.00 91 1011.1
20260905082405 76 0 0.0 0.0 0.00 0.00 0.00 91 1011.1
20260905082307 76 0 0.0 0.0 0.00 0.00 0.00 91 1011.1
20260905082206 76 0 0.0 0.0 0.00 0.00 0.00 91 1011.1
20260905082104 76 0 0.0 0.0 0.00 0.00 0.00 91 1011.1
20260905082004 76 0 0.0 0.0 0.00 0.00 0.00 92 1011.1
20260905081905 76 0 0.0 0.0 0.00 0.00 0.00 91 1011.1
20260905081805 76 0 0.0 0.0 0.00 0.00 0.00 91 1011.1
20260905081705 76 0 0.0 0.0 0.00 0.00 0.00 91 1011.1
20260905081604 76 0 0.0 0.0 0.00 0.00 0.00 91 1011.1
20260905081505 76 0 0.0 0.0 0.00 0.00 0.00 91 1011.1
20260905081404 76 0 0.0 0.0 0.00 0.00 0.00 92 1011.2
20260905081304 76 0 0.0 0.0 0.00 0.00 0.00 92 1011.2
20260905081225 76 0 0.0 0.0 0.00 0.00 0.00 92 1011.2
20260905081104 76 0 0.0 0.0 0.00 0.00 0.00 92 1011.2
20260905081026 76 0 0.0 0.0 0.00 0.00 0.00 92 1011.2
20260905080904 76 0 0.0 0.0 0.00 0.00 0.00 92 1011.2
20260905080804 76 0 0.0 0.0 0.00 0.00 0.00 92 1011.2
20260905080704 76 0 0.0 0.0 0.00 0.00 0.00 92 1011.2
20260905080626 76 0 0.0 0.0 0.00 0.00 0.00 92 1011.2
20260905080505 76 0 0.0 0.0 0.00 0.00 0.00 92 1011.2
20260905080404 76 0 0.0 0.0 0.00 0.00 0.00 92 1011.2
20260905080325 76 0 0.0 0.0 0.00 0.00 0.00 92 1011.2
20260905080204 76 0 0.0 0.0 0.00 0.00 0.00 92 1011.2
20260905080104 76 0 0.0 0.0 0.00 0.00 0.00 92 1011.2
20260905080005 76 0 0.0 0.0 0.00 0.00 0.00 92 1011.2
20260905075904 76 0 0.0 0.0 0.00 0.00 0.00 92 1011.3
20260905075825 76 0 0.0 0.0 0.00 0.00 0.00 92 1011.3
20260905075704 76 0 0.0 0.0 0.00 0.00 0.00 92 1011.3
20260905075625 76 0 0.0 0.0 0.00 0.00 0.00 92 1011.3
20260905075526 76 0 0.0 0.0 0.00 0.00 0.00 91 1011.3
20260905075405 76 0 0.0 0.0 0.00 0.00 0.00 91 1011.3
20260905075306 76 0 0.0 0.0 0.00 0.00 0.00 91 1011.3
20260905075226 76 0 0.0 0.0 0.00 0.00 0.00 91 1011.3
20260905075105 76 0 0.0 0.0 0.00 0.00 0.00 91 1011.3
20260905075004 76 0 0.0 0.0 0.00 0.00 0.00 91 1011.3
20260905074905 76 0 0.0 0.0 0.00 0.00 0.00 91 1011.3
20260905074804 76 0 0.0 0.0 0.00 0.00 0.00 91 1011.3
20260905074705 76 0 0.0 0.0 0.00 0.00 0.00 91 1011.3
20260905074604 76 0 0.0 0.0 0.00 0.00 0.00 91 1011.3
20260905074504 76 0 0.0 0.0 0.00 0.00 0.00 91 1011.3
20260905074405 76 0 0.0 0.0 0.00 0.00 0.00 91 1011.5
20260905074305 76 0 0.0 0.0 0.00 0.00 0.00 91 1011.5
20260905074225 76 0 0.0 0.0 0.00 0.00 0.00 91 1011.5
20260905074104 76 0 0.0 0.0 0.00 0.00 0.00 91 1011.5
20260905074004 76 0 0.0 0.0 0.00 0.00 0.00 92 1011.5
20260905073905 76 0 0.0 0.0 0.00 0.00 0.00 92 1011.5
20260905073805 76 0 0.0 0.0 0.00 0.00 0.00 92 1011.5
20260905073704 76 0 0.0 0.0 0.00 0.00 0.00 92 1011.5
20260905073604 76 0 0.0 0.0 0.00 0.00 0.00 91 1011.5
20260905073525 76 0 0.0 0.0 0.00 0.00 0.00 91 1011.5
20260905073405 76 0 0.0 0.0 0.00 0.00 0.00 91 1011.5
20260905073305 76 0 0.0 0.0 0.00 0.00 0.00 91 1011.5
20260905073205 76 0 0.0 0.0 0.00 0.00 0.00 91 1011.5
20260905073125 76 0 0.0 0.0 0.00 0.00 0.00 92 1011.5
20260905073004 76 0 0.0 0.0 0.00 0.00 0.00 92 1011.5
20260905072905 76 0 0.0 0.0 0.00 0.00 0.00 92 1011.6
20260905072804 76 0 0.0 0.0 0.00 0.00 0.00 92 1011.6
20260905072704 76 0 0.0 0.0 0.00 0.00 0.00 91 1011.6
20260905072604 76 0 0.0 0.0 0.00 0.00 0.00 92 1011.6
20260905072505 76 0 0.0 0.0 0.00 0.00 0.00 92 1011.6
20260905072405 76 0 0.0 0.0 0.00 0.00 0.00 92 1011.6
20260905072325 76 0 0.0 0.0 0.00 0.00 0.00 92 1011.6
20260905072204 76 0 0.0 0.0 0.00 0.00 0.00 91 1011.6
20260905072105 76 0 0.0 0.0 0.00 0.00 0.00 91 1011.6
20260905072004 76 0 0.0 0.0 0.00 0.00 0.00 91 1011.6
20260905071904 76 0 0.0 0.0 0.00 0.00 0.00 91 1011.6
20260905071805 76 0 0.0 0.0 0.00 0.00 0.00 91 1011.6
20260905071704 76 0 0.0 0.0 0.00 0.00 0.00 91 1011.6
20260905071604 76 0 0.0 0.0 0.00 0.00 0.00 91 1011.6
20260905071504 76 0 0.0 0.0 0.00 0.00 0.00 91 1011.6
20260905071426 76 0 0.0 0.0 0.00 0.00 0.00 91 1011.6
20260905071325 76 0 0.0 0.0 0.00 0.00 0.00 91 1011.6
20260905071225 76 0 0.0 0.0 0.00 0.00 0.00 91 1011.6
20260905071104 76 0 0.0 0.0 0.00 0.00 0.00 91 1011.6
20260905071005 76 0 0.0 0.0 0.00 0.00 0.00 91 1011.6
20260905070905 76 0 0.0 0.0 0.00 0.00 0.00 91 1011.6
20260905070804 76 0 0.0 0.0 0.00 0.00 0.00 91 1011.6
20260905070705 76 0 0.0 0.0 0.00 0.00 0.00 91 1011.6
20260905070605 76 0 0.0 0.0 0.00 0.00 0.00 91 1011.6
20260905070504 76 0 0.0 0.0 0.00 0.00 0.00 91 1011.6
20260905070405 76 0 0.0 0.0 0.00 0.00 0.00 91 1011.6
20260905070304 76 0 0.0 0.0 0.00 0.00 0.00 91 1011.6
20260905070205 76 0 0.0 0.0 0.00 0.00 0.00 91 1011.6
20260905070126 76 0 0.0 0.0 0.00 0.00 0.00 91 1011.6
20260905070004 76 0 0.0 0.0 0.00 0.00 0.00 91 1011.6
20260905065904 76 0 0.0 0.0 0.00 0.00 0.00 91 1012.0
20260905065804 76 0 0.0 0.0 0.00 0.00 0.00 91 1012.0
20260905065705 76 0 0.0 0.0 0.00 0.00 0.00 91 1012.0
20260905065605 76 0 0.0 0.0 0.00 0.00 0.00 91 1012.0
20260905065504 76 0 0.0 0.0 0.00 0.00 0.00 91 1012.0
20260905065426 76 0 0.0 0.0 0.00 0.00 0.00 91 1012.0
20260905065306 76 0 0.0 0.0 0.00 0.00 0.00 91 1012.0
20260905065204 76 0 0.0 0.0 0.00 0.00 0.00 91 1012.0
20260905065125 76 0 0.0 0.0 0.00 0.00 0.00 91 1012.0
20260905065004 76 0 0.0 0.0 0.00 0.00 0.00 91 1012.0
20260905064904 76 0 0.0 0.0 0.00 0.00 0.00 91 1012.0
20260905064804 76 0 0.0 0.0 0.00 0.00 0.00 91 1012.0
20260905064705 76 0 0.0 0.0 0.00 0.00 0.00 91 1012.0
20260905064625 76 0 0.0 0.0 0.00 0.00 0.00 91 1012.0
20260905064505 76 0 0.0 0.0 0.00 0.00 0.00 91 1012.0
20260905064405 76 0 0.0 0.0 0.00 0.00 0.00 91 1012.1
20260905064326 76 0 0.0 0.0 0.00 0.00 0.00 91 1012.1
20260905064204 76 0 0.0 0.0 0.00 0.00 0.00 91 1012.1
20260905064125 76 0 0.0 0.0 0.00 0.00 0.00 91 1012.1
20260905064004 76 0 0.0 0.0 0.00 0.00 0.00 91 1012.1
20260905063905 76 0 0.0 0.0 0.00 0.00 0.00 91 1012.1
20260905063805 76 0 0.0 0.0 0.00 0.00 0.00 91 1012.1
20260905063704 76 0 0.0 0.0 0.00 0.00 0.00 91 1012.1
20260905063605 76 0 0.0 0.0 0.00 0.00 0.00 91 1012.1
20260905063505 76 0 0.0 0.0 0.00 0.00 0.00 91 1012.1
20260905063405 76 0 0.0 0.0 0.00 0.00 0.00 91 1012.1
20260905063304 76 0 0.0 0.0 0.00 0.00 0.00 91 1012.1
20260905063205 76 0 0.0 0.0 0.00 0.00 0.00 91 1012.1
20260905063104 76 0 0.0 0.0 0.00 0.00 0.00 91 1012.1
20260905063005 76 0 0.0 0.0 0.00 0.00 0.00 91 1012.1
20260905062904 76 0 0.0 0.0 0.00 0.00 0.00 91 1012.2
20260905062805 76 0 0.0 0.0 0.00 0.00 0.00 91 1012.2
20260905062705 76 0 0.0 0.0 0.00 0.00 0.00 91 1012.2
20260905062626 76 0 0.0 0.0 0.00 0.00 0.00 91 1012.2
20260905062525 76 0 0.0 0.0 0.00 0.00 0.00 91 1012.2
20260905062404 76 0 0.0 0.0 0.00 0.00 0.00 91 1012.2
20260905062306 76 0 0.0 0.0 0.00 0.00 0.00 91 1012.2
20260905062204 76 0 0.0 0.0 0.00 0.00 0.00 91 1012.2
20260905062104 76 0 0.0 0.0 0.00 0.00 0.00 91 1012.2
20260905062004 76 0 0.0 0.0 0.00 0.00 0.00 91 1012.2
20260905061925 76 0 0.0 0.0 0.00 0.00 0.00 91 1012.2
20260905061805 76 0 0.0 0.0 0.00 0.00 0.00 90 1012.2
20260905061704 76 0 0.0 0.0 0.00 0.00 0.00 90 1012.2
20260905061604 76 0 0.0 0.0 0.00 0.00 0.00 90 1012.2
20260905061504 76 0 0.0 0.0 0.00 0.00 0.00 90 1012.2
20260905061404 76 0 0.0 0.0 0.00 0.00 0.00 90 1012.5
20260905061304 76 0 0.0 0.0 0.00 0.00 0.00 90 1012.5
20260905061226 76 0 0.0 0.0 0.00 0.00 0.00 90 1012.5
20260905061104 76 0 0.0 0.0 0.00 0.00 0.00 91 1012.5
20260905061004 76 0 0.0 0.0 0.00 0.00 0.00 91 1012.5
20260905060905 76 0 0.0 0.0 0.00 0.00 0.00 91 1012.5
20260905060804 76 0 0.0 0.0 0.00 0.00 0.00 91 1012.5
20260905060704 76 0 0.0 0.0 0.00 0.00 0.00 91 1012.5
20260905060604 76 0 0.0 0.0 0.00 0.00 0.00 91 1012.5
20260905060505 76 0 0.0 0.0 0.00 0.00 0.00 91 1012.5
20260905060405 76 0 0.0 0.0 0.00 0.00 0.00 91 1012.5
20260905060305 76 0 0.0 0.0 0.00 0.00 0.00 91 1012.5
20260905060204 76 0 0.0 0.0 0.00 0.00 0.00 91 1012.5
20260905060104 76 0 0.0 0.0 0.00 0.00 0.00 91 1012.5
20260905060005 76 0 0.0 0.0 0.00 0.00 0.00 91 1012.5
20260905055905 76 0 0.0 0.0 0.00 0.00 0.00 91 1012.5
20260905055825 76 0 0.0 0.0 0.00 0.00 0.00 91 1012.5
20260905055705 76 0 0.0 0.0 0.00 0.00 0.00 91 1012.5
20260905055605 76 0 0.0 0.0 0.00 0.00 0.00 91 1012.5
20260905055526 76 0 0.0 0.0 0.00 0.00 0.00 91 1012.5
20260905055404 76 0 0.0 0.0 0.00 0.00 0.00 91 1012.5
20260905055306 76 0 0.0 0.0 0.00 0.00 0.00 91 1012.5
20260905055205 76 0 0.0 0.0 0.00 0.00 0.00 91 1012.5
20260905055104 76 0 0.0 0.0 0.00 0.00 0.00 91 1012.5
20260905055004 76 0 0.0 0.0 0.00 0.00 0.00 91 1012.5
20260905054905 76 0 0.0 0.0 0.00 0.00 0.00 91 1012.5
20260905054804 76 0 0.0 0.0 0.00 0.00 0.00 91 1012.5
20260905054726 76 0 0.0 0.0 0.00 0.00 0.00 91 1012.5
20260905054604 76 0 0.0 0.0 0.00 0.00 0.00 91 1012.5
20260905054525 76 0 0.0 0.0 0.00 0.00 0.00 91 1012.5
20260905054404 76 0 0.0 0.0 0.00 0.00 0.00 91 1012.6
20260905054304 76 0 0.0 0.0 0.00 0.00 0.00 91 1012.6
20260905054204 76 0 0.0 0.0 0.00 0.00 0.00 91 1012.6
20260905054104 76 0 0.0 0.0 0.00 0.00 0.00 91 1012.6
20260905054004 76 0 0.0 0.0 0.00 0.00 0.00 91 1012.6
20260905053904 76 0 0.0 0.0 0.00 0.00 0.00 91 1012.6
20260905053825 76 0 0.0 0.0 0.00 0.00 0.00 91 1012.6
20260905053704 76 0 0.0 0.0 0.00 0.00 0.00 91 1012.6
20260905053604 76 0 0.0 0.0 0.00 0.00 0.00 91 1012.6
20260905053505 76 0 0.0 0.0 0.00 0.00 0.00 91 1012.6
20260905053404 76 0 0.0 0.0 0.00 0.00 0.00 91 1012.6
20260905053326 76 0 0.0 0.0 0.00 0.00 0.00 91 1012.6
20260905053225 76 0 0.0 0.0 0.00 0.00 0.00 91 1012.6
20260905053104 76 0 0.0 0.0 0.00 0.00 0.00 91 1012.6
20260905053025 76 0 0.0 0.0 0.00 0.00 0.00 91 1012.6
20260905052904 76 0 0.0 0.0 0.00 0.00 0.00 91 1012.6
20260905052804 76 0 0.0 0.0 0.00 0.00 0.00 91 1012.6
20260905052725 76 0 0.0 0.0 0.00 0.00 0.00 91 1012.6
20260905052604 76 0 0.0 0.0 0.00 0.00 0.00 91 1012.6
20260905052504 76 0 0.0 0.0 0.00 0.00 0.00 91 1012.6
20260905052405 76 0 0.0 0.0 0.00 0.00 0.00 91 1012.6
20260905052306 76 0 0.0 0.0 0.00 0.00 0.00 91 1012.6
20260905052205 76 0 0.0 0.0 0.00 0.00 0.00 91 1012.6
20260905052126 76 0 0.0 0.0 0.00 0.00 0.00 91 1012.6
20260905052005 76 0 0.0 0.0 0.00 0.00 0.00 91 1012.6
20260905051904 76 0 0.0 0.0 0.00 0.00 0.00 91 1012.6
20260905051804 76 0 0.0 0.0 0.00 0.00 0.00 91 1012.6
20260905051704 76 0 0.0 0.0 0.00 0.00 0.00 90 1012.6
20260905051604 76 0 0.0 0.0 0.00 0.00 0.00 90 1012.6
20260905051504 76 0 0.0 0.0 0.00 0.00 0.00 90 1012.6
20260905051404 76 0 0.0 0.0 0.00 0.00 0.00 90 1012.7
20260905051304 76 0 0.0 0.0 0.00 0.00 0.00 90 1012.7
20260905051204 76 0 0.0 0.0 0.00 0.00 0.00 90 1012.7
20260905051104 76 0 0.0 0.0 0.00 0.00 0.00 90 1012.7
20260905051005 76 0 0.0 0.0 0.00 0.00 0.00 90 1012.7
20260905050905 76 0 0.0 0.0 0.00 0.00 0.00 90 1012.7
20260905050805 76 0 0.0 0.0 0.00 0.00 0.00 90 1012.7
20260905050704 76 0 0.0 0.0 0.00 0.00 0.00 90 1012.7
20260905050605 76 0 0.0 0.0 0.00 0.00 0.00 90 1012.7
20260905050526 76 0 0.0 0.0 0.00 0.00 0.00 90 1012.7
20260905050404 76 0 0.0 0.0 0.00 0.00 0.00 90 1012.7
20260905050325 76 0 0.0 0.0 0.00 0.00 0.00 90 1012.7
20260905050204 76 0 0.0 0.0 0.00 0.00 0.00 90 1012.7
20260905050104 76 0 0.0 0.0 0.00 0.00 0.00 90 1012.7
20260905050004 76 0 0.0 0.0 0.00 0.00 0.00 90 1012.7
20260905045904 76 0 0.0 0.0 0.00 0.00 0.00 90 1012.7
20260905045825 76 0 0.0 0.0 0.00 0.00 0.00 90 1012.7
20260905045705 76 0 0.0 0.0 0.00 0.00 0.00 90 1012.7
20260905045605 77 0 0.0 0.0 0.00 0.00 0.00 90 1012.7
20260905045504 77 0 0.0 0.0 0.00 0.00 0.00 90 1012.7
20260905045404 77 0 0.0 0.0 0.00 0.00 0.00 90 1012.7
20260905045305 77 0 0.0 0.0 0.00 0.00 0.00 90 1012.7
20260905045204 77 0 0.0 0.0 0.00 0.00 0.00 90 1012.7
20260905045105 77 0 0.0 0.0 0.00 0.00 0.00 90 1012.7
20260905045004 77 0 0.0 0.0 0.00 0.00 0.00 90 1012.7
20260905044904 77 0 0.0 0.0 0.00 0.00 0.00 90 1012.7
20260905044804 77 0 0.0 0.0 0.00 0.00 0.00 90 1012.7
20260905044725 77 0 0.0 0.0 0.00 0.00 0.00 90 1012.7
20260905044626 77 0 0.0 0.0 0.00 0.00 0.00 90 1012.7
20260905044504 77 0 0.0 0.0 0.00 0.00 0.00 90 1012.7
20260905044405 77 0 0.0 0.0 0.00 0.00 0.00 90 1012.8
20260905044305 77 0 0.0 0.0 0.00 0.00 0.00 90 1012.8
20260905044205 77 0 0.0 0.0 0.00 0.00 0.00 90 1012.8
20260905044104 77 0 0.0 0.0 0.00 0.00 0.00 90 1012.8
20260905044004 77 0 0.0 0.0 0.00 0.00 0.00 90 1012.8
20260905043904 77 0 0.0 0.0 0.00 0.00 0.00 90 1012.8
20260905043825 77 0 0.0 0.0 0.00 0.00 0.00 90 1012.8
20260905043705 77 0 0.0 0.0 0.00 0.00 0.00 90 1012.8
20260905043625 77 0 0.0 0.0 0.00 0.00 0.00 90 1012.8
20260905043505 77 0 0.0 0.0 0.00 0.00 0.00 90 1012.8
20260905043405 77 0 0.0 0.0 0.00 0.00 0.00 90 1012.8
20260905043305 77 0 0.0 0.0 0.00 0.00 0.00 90 1012.8
20260905043204 77 0 0.0 0.0 0.00 0.00 0.00 90 1012.8
20260905043104 77 0 0.0 0.0 0.00 0.00 0.00 90 1012.8
20260905043004 77 0 0.0 0.0 0.00 0.00 0.00 90 1012.8
20260905042904 77 0 0.0 0.0 0.00 0.00 0.00 89 1012.7
20260905042805 77 0 0.0 0.0 0.00 0.00 0.00 89 1012.7
20260905042704 77 0 0.0 0.0 0.00 0.00 0.00 89 1012.7
20260905042605 77 0 0.0 0.0 0.00 0.00 0.00 89 1012.7
20260905042504 77 0 0.0 0.0 0.00 0.00 0.00 89 1012.7
20260905042405 77 0 0.0 0.0 0.00 0.00 0.00 89 1012.7
20260905042307 77 0 0.0 0.0 0.00 0.00 0.00 89 1012.7
20260905042204 77 0 0.0 0.0 0.00 0.00 0.00 89 1012.7
20260905042106 77 0 0.0 0.0 0.00 0.00 0.00 89 1012.7
20260905042025 77 0 0.0 0.0 0.00 0.00 0.00 89 1012.7
20260905041926 77 0 0.0 0.0 0.00 0.00 0.00 89 1012.7
20260905041804 77 0 0.0 0.0 0.00 0.00 0.00 89 1012.7
20260905041704 77 0 0.0 0.0 0.00 0.00 0.00 89 1012.7
20260905041625 77 0 0.0 0.0 0.00 0.00 0.00 89 1012.7
20260905041525 77 0 0.0 0.0 0.00 0.00 0.00 89 1012.7
20260905041404 77 0 0.0 0.0 0.00 0.00 0.00 89 1012.7
20260905041304 77 0 0.0 0.0 0.00 0.00 0.00 89 1012.7
20260905041205 77 0 0.0 0.0 0.00 0.00 0.00 89 1012.7
20260905041105 77 0 0.0 0.0 0.00 0.00 0.00 89 1012.7
20260905041004 77 0 0.0 0.0 0.00 0.00 0.00 89 1012.7
20260905040904 77 0 0.0 0.0 0.00 0.00 0.00 89 1012.7
20260905040804 77 0 0.0 0.0 0.00 0.00 0.00 89 1012.7
20260905040704 77 0 0.0 0.0 0.00 0.00 0.00 89 1012.7
20260905040605 77 0 0.0 0.0 0.00 0.00 0.00 89 1012.7
20260905040505 77 0 0.0 0.0 0.00 0.00 0.00 89 1012.7
20260905040404 78 0 0.0 0.0 0.00 0.00 0.00 89 1012.7
20260905040304 78 0 0.0 0.0 0.00 0.00 0.00 89 1012.7
20260905040204 78 0 0.0 0.0 0.00 0.00 0.00 89 1012.7
20260905040104 78 0 0.0 0.0 0.00 0.00 0.00 89 1012.7
20260905040026 78 0 0.0 0.0 0.00 0.00 0.00 89 1012.7
20260905035904 78 0 0.0 0.0 0.00 0.00 0.00 89 1012.9
20260905035805 78 0 0.0 0.0 0.00 0.00 0.00 89 1012.9
20260905035725 78 0 0.0 0.0 0.00 0.00 0.00 89 1012.9
20260905035604 78 0 0.0 0.0 0.00 0.00 0.00 89 1012.9
20260905035504 78 0 0.0 0.0 0.00 0.00 0.00 89 1012.9
20260905035405 78 0 0.0 0.0 0.00 0.00 0.00 89 1012.9
20260905035306 78 0 0.0 0.0 0.00 0.00 0.00 89 1012.9
20260905035204 78 0 0.0 0.0 0.00 0.00 0.00 89 1012.9
20260905035104 78 0 0.0 0.0 0.00 0.00 0.00 89 1012.9
20260905035004 78 0 0.0 0.0 0.00 0.00 0.00 89 1012.9
20260905034904 78 0 0.0 0.0 0.00 0.00 0.00 89 1012.9
20260905034804 78 0 0.0 0.0 0.00 0.00 0.00 89 1012.9
20260905034704 78 0 0.0 0.0 0.00 0.00 0.00 89 1012.9
20260905034604 78 0 0.0 0.0 0.00 0.00 0.00 89 1012.9
20260905034504 78 0 0.0 0.0 0.00 0.00 0.00 89 1012.9
20260905034405 78 0 0.0 0.0 0.00 0.00 0.00 89 1012.9
20260905034304 78 0 0.0 0.0 0.00 0.00 0.00 89 1012.9
20260905034205 78 0 0.0 0.0 0.00 0.00 0.00 89 1012.9
20260905034104 78 0 0.0 0.0 0.00 0.00 0.00 89 1012.9
20260905034005 78 0 0.0 0.0 0.00 0.00 0.00 89 1012.9
20260905033903 78 0 0.0 0.0 0.00 0.00 0.00 89 1012.9
20260905033804 78 0 0.0 0.0 0.00 0.00 0.00 89 1012.9
20260905033726 78 0 0.0 0.0 0.00 0.00 0.00 89 1012.9
20260905033625 78 0 0.0 0.0 0.00 0.00 0.00 89 1012.9
20260905033504 78 0 0.0 0.0 0.00 0.00 0.00 89 1012.9
20260905033425 78 0 0.0 0.0 0.00 0.00 0.00 89 1012.9
20260905033304 78 0 0.0 0.0 0.00 0.00 0.00 89 1012.9
20260905033204 78 0 0.0 0.0 0.00 0.00 0.00 89 1012.9
20260905033104 78 0 0.0 0.0 0.00 0.00 0.00 89 1012.9
20260905033025 78 0 0.0 0.0 0.00 0.00 0.00 88 1012.9
20260905032904 78 0 0.0 0.0 0.00 0.00 0.00 88 1013.0
20260905032805 78 0 0.0 0.0 0.00 0.00 0.00 88 1013.0
20260905032704 78 0 0.0 0.0 0.00 0.00 0.00 88 1013.0
20260905032605 78 0 0.0 0.0 0.00 0.00 0.00 88 1013.0
20260905032504 78 0 0.0 0.0 0.00 0.00 0.00 88 1013.0
20260905032404 78 0 0.0 0.0 0.00 0.00 0.00 88 1013.0
20260905032306 78 0 0.0 0.0 0.00 0.00 0.00 88 1013.0
20260905032205 78 0 0.0 0.0 0.00 0.00 0.00 88 1013.0
20260905032105 78 0 0.0 0.0 0.00 0.00 0.00 88 1013.0
20260905032004 78 0 0.0 0.0 0.00 0.00 0.00 88 1013.0
20260905031905 78 0 0.0 0.0 0.00 0.00 0.00 88 1013.0
20260905031804 78 0 0.0 0.0 0.00 0.00 0.00 88 1013.0
20260905031725 78 0 0.0 0.0 0.00 0.00 0.00 88 1013.0
20260905031603 78 0 0.0 0.0 0.00 0.00 0.00 88 1013.0
20260905031505 78 0 0.0 0.0 0.00 0.00 0.00 88 1013.0
20260905031404 78 0 0.0 0.0 0.00 0.00 0.00 88 1013.1
20260905031305 78 0 0.0 0.0 0.00 0.00 0.00 88 1013.1
20260905031205 78 0 0.0 0.0 0.00 0.00 0.00 88 1013.1
20260905031105 78 0 0.0 0.0 0.00 0.00 0.00 88 1013.1
20260905031004 78 0 0.0 0.0 0.00 0.00 0.00 88 1013.1
20260905030904 78 0 0.0 0.0 0.00 0.00 0.00 87 1013.1
20260905030804 78 0 0.0 0.0 0.00 0.00 0.00 87 1013.1
20260905030725 78 0 0.0 0.0 0.00 0.00 0.00 87 1013.1
20260905030605 78 0 0.0 0.0 0.00 0.00 0.00 87 1013.1
20260905030505 79 0 0.0 0.0 0.00 0.00 0.00 87 1013.1
20260905030405 79 0 0.0 0.0 0.00 0.00 0.00 88 1013.1
20260905030304 79 0 0.0 0.0 0.00 0.00 0.00 88 1013.1
20260905030204 79 0 0.0 0.0 0.00 0.00 0.00 88 1013.1
20260905030104 79 0 0.0 0.0 0.00 0.00 0.00 88 1013.1
20260905030004 79 0 0.0 0.0 0.00 0.00 0.00 87 1013.1
20260905025905 79 0 0.0 0.0 0.00 0.00 0.00 87 1013.0
20260905025805 79 0 0.0 0.0 0.00 0.00 0.00 87 1013.0
20260905025704 79 0 0.0 0.0 0.00 0.00 0.00 87 1013.0
20260905025625 79 0 0.0 0.0 0.00 0.00 0.00 87 1013.0
20260905025504 79 0 0.0 0.0 0.00 0.00 0.00 87 1013.0
20260905025404 79 0 0.0 0.0 0.00 0.00 0.00 87 1013.0
20260905025306 79 0 0.0 0.0 0.00 0.00 0.00 87 1013.0
20260905025204 79 0 0.0 0.0 0.00 0.00 0.00 86 1013.0
20260905025104 79 0 0.0 0.0 0.00 0.00 0.00 86 1013.0
20260905025004 79 0 0.0 0.0 0.00 0.00 0.00 86 1013.0
20260905024904 79 0 0.0 0.0 0.00 0.00 0.00 86 1013.0
20260905024804 79 0 0.0 0.0 0.00 0.00 0.00 86 1013.0
20260905024704 79 0 0.0 0.0 0.00 0.00 0.00 86 1013.0
20260905024604 79 0 0.0 0.0 0.00 0.00 0.00 86 1013.0
20260905024504 79 0 0.0 0.0 0.00 0.00 0.00 86 1013.0
20260905024405 79 0 0.0 0.0 0.00 0.00 0.00 86 1012.7
20260905024305 79 0 0.0 0.0 0.00 0.00 0.00 86 1012.7
20260905024204 79 0 0.0 0.0 0.00 0.00 0.00 86 1012.7
20260905024105 79 0 0.0 0.0 0.00 0.00 0.00 86 1012.7
20260905024004 79 0 0.0 0.0 0.00 0.00 0.00 86 1012.7
20260905023926 79 0 0.0 0.0 0.00 0.00 0.00 86 1012.7
20260905023805 79 0 0.0 0.0 0.00 0.00 0.00 86 1012.7
20260905023704 79 0 0.0 0.0 0.00 0.00 0.00 86 1012.7
20260905023625 79 0 0.0 0.0 0.00 0.00 0.00 86 1012.7
20260905023504 79 0 0.0 0.0 0.00 0.00 0.00 86 1012.7
20260905023405 79 0 0.0 0.0 0.00 0.00 0.00 86 1012.7
20260905023325 79 0 0.0 0.0 0.00 0.00 0.00 86 1012.7
20260905023205 80 0 0.0 0.0 0.00 0.00 0.00 86 1012.7
20260905023126 80 0 0.0 0.0 0.00 0.00 0.00 86 1012.7
20260905023005 80 0 0.0 0.0 0.00 0.00 0.00 86 1012.7
20260905022904 80 0 0.0 0.0 0.00 0.00 0.00 85 1012.7
20260905022826 80 0 0.0 0.0 0.00 0.00 0.00 85 1012.7
20260905022704 80 0 0.0 0.0 0.00 0.00 0.00 85 1012.7
20260905022626 80 0 0.0 0.0 0.00 0.00 0.00 85 1012.7
20260905022504 80 0 0.0 0.0 0.00 0.00 0.00 85 1012.7
20260905022405 80 0 0.0 0.0 0.00 0.00 0.00 85 1012.7
20260905022325 80 0 0.0 0.0 0.00 0.00 0.00 85 1012.7
20260905022225 80 0 0.0 0.0 0.00 0.00 0.00 85 1012.7
20260905022105 80 0 0.0 0.0 0.00 0.00 0.00 85 1012.7
20260905022025 80 0 0.0 0.0 0.00 0.00 0.00 85 1012.7
20260905021905 80 0 0.0 0.0 0.00 0.00 0.00 85 1012.7
20260905021804 80 0 0.0 0.0 0.00 0.00 0.00 85 1012.7
20260905021704 80 0 0.0 0.0 0.00 0.00 0.00 84 1012.7
20260905021604 80 0 0.0 0.0 0.00 0.00 0.00 84 1012.7
20260905021505 80 0 0.0 0.0 0.00 0.00 0.00 84 1012.7
20260905021404 80 0 0.0 0.0 0.00 0.00 0.00 84 1012.6
20260905021325 80 0 0.0 0.0 0.00 0.00 0.00 84 1012.6
20260905021205 80 0 0.0 0.0 0.00 0.00 0.00 84 1012.6
20260905021105 80 0 0.0 0.0 0.00 0.00 0.00 84 1012.6
20260905021004 80 0 0.0 0.0 0.00 0.00 0.00 83 1012.6
20260905020905 80 0 0.0 0.0 0.00 0.00 0.00 83 1012.6
20260905020804 80 0 0.0 0.0 0.00 0.00 0.00 83 1012.6
20260905020704 80 0 0.0 0.0 0.00 0.00 0.00 83 1012.6
20260905020605 80 0 0.0 0.0 0.00 0.00 0.00 83 1012.6
20260905020504 80 0 0.0 0.0 0.00 0.00 0.00 83 1012.6
20260905020405 80 0 0.0 0.0 0.00 0.00 0.00 83 1012.6
20260905020305 80 0 0.0 0.0 0.00 0.00 0.00 83 1012.6
20260905020205 80 0 0.0 0.0 0.00 0.00 0.00 83 1012.6
20260905020104 81 0 0.0 0.0 0.00 0.00 0.00 82 1012.6
20260905020005 81 0 0.0 0.0 0.00 0.00 0.00 82 1012.6
20260905015904 81 0 0.0 0.0 0.00 0.00 0.00 82 1012.6
20260905015826 81 0 0.0 0.0 0.00 0.00 0.00 82 1012.6
20260905015725 81 0 0.0 0.0 0.00 0.00 0.00 83 1012.6
20260905015604 81 0 0.0 0.0 0.00 0.00 0.00 82 1012.6
20260905015504 81 0 0.0 0.0 0.00 0.00 0.00 82 1012.6
20260905015405 81 0 0.0 0.0 0.00 0.00 0.00 82 1012.6
20260905015306 81 0 0.0 0.0 0.00 0.00 0.00 82 1012.6
20260905015205 81 0 0.0 0.0 0.00 0.00 0.00 82 1012.6
20260905015104 81 0 0.0 0.0 0.00 0.00 0.00 82 1012.6
20260905015005 81 0 0.0 0.0 0.00 0.00 0.00 82 1012.6
20260905014904 81 0 0.0 0.0 0.00 0.00 0.00 82 1012.6
20260905014804 81 0 0.0 0.0 0.00 0.00 0.00 82 1012.6
20260905014704 81 0 0.0 0.0 0.00 0.00 0.00 82 1012.6
20260905014626 81 0 0.0 0.0 0.00 0.00 0.00 82 1012.6
20260905014525 81 0 0.0 0.0 0.00 0.00 0.00 82 1012.6
20260905014404 81 0 0.0 0.0 0.00 0.00 0.00 81 1012.5
20260905014305 81 0 0.0 0.0 0.00 0.00 0.00 82 1012.5
20260905014204 82 0 0.0 0.0 0.00 0.00 0.00 81 1012.5
20260905014125 82 0 0.0 0.0 0.00 0.00 0.00 82 1012.5
20260905014026 82 0 0.0 0.0 0.00 0.00 0.00 82 1012.5
20260905013905 82 0 0.0 0.0 0.00 0.00 0.00 82 1012.5
20260905013805 82 0 0.0 0.0 0.00 0.00 0.00 81 1012.5
20260905013704 82 0 0.0 0.0 0.00 0.00 0.00 81 1012.5
20260905013604 82 0 0.0 0.0 0.00 0.00 0.00 81 1012.5
20260905013505 82 0 0.0 0.0 0.00 0.00 0.00 81 1012.5
20260905013404 82 0 0.0 0.0 0.00 0.00 0.00 81 1012.5
20260905013305 82 0 0.0 0.0 0.00 0.00 0.00 81 1012.5
20260905013226 82 0 0.0 0.0 0.00 0.00 0.00 81 1012.5
20260905013104 82 0 0.0 0.0 0.00 0.00 0.00 81 1012.5
20260905013004 82 0 0.0 0.0 0.00 0.00 0.00 81 1012.5
20260905012904 82 0 0.0 0.0 0.00 0.00 0.00 81 1012.4
20260905012805 82 0 0.0 0.0 0.00 0.00 0.00 81 1012.4
20260905012704 82 0 0.0 0.0 0.00 0.00 0.00 81 1012.4
20260905012604 82 0 0.0 0.0 0.00 0.00 0.00 80 1012.4
20260905012506 82 0 0.0 0.0 0.00 0.00 0.00 80 1012.4
20260905012404 82 0 0.0 0.0 0.00 0.00 0.00 80 1012.4
20260905012306 82 0 0.0 0.0 0.00 0.00 0.00 80 1012.4
20260905012204 82 0 0.0 0.0 0.00 0.00 0.00 80 1012.4
20260905012105 82 0 0.0 0.0 0.00 0.00 0.00 80 1012.4
20260905012004 82 0 0.0 0.0 0.00 0.00 0.00 80 1012.4
20260905011903 82 0 0.0 0.0 0.00 0.00 0.00 80 1012.4
20260905011804 82 0 0.0 0.0 0.00 0.00 0.00 80 1012.4
20260905011705 82 0 0.0 0.0 0.00 0.00 0.00 80 1012.4
20260905011606 82 0 0.0 0.0 0.00 0.00 0.00 80 1012.4
20260905011525 82 0 0.0 0.0 0.00 0.00 0.00 80 1012.4
20260905011404 82 0 0.0 0.0 0.00 0.00 0.00 79 1012.1
20260905011304 82 0 0.0 0.0 0.00 0.00 0.00 79 1012.1
20260905011205 83 0 0.0 0.0 0.00 0.00 0.00 79 1012.1
20260905011104 83 0 0.0 0.0 0.00 0.00 0.00 79 1012.1
20260905011004 83 0 0.0 0.0 0.00 0.00 0.00 79 1012.1
20260905010904 83 0 0.0 0.0 0.00 0.00 0.00 79 1012.1
20260905010805 83 0 0.0 0.0 0.00 0.00 0.00 78 1012.1
20260905010704 83 0 0.0 0.0 0.00 0.00 0.00 78 1012.1
20260905010604 83 0 0.0 0.0 0.00 0.00 0.00 78 1012.1
20260905010504 83 0 0.0 0.0 0.00 0.00 0.00 77 1012.1
20260905010406 83 0 0.0 0.0 0.00 0.00 0.00 77 1012.1
20260905010304 83 0 0.0 0.0 0.00 0.00 0.00 77 1012.1
20260905010204 83 0 0.0 0.0 0.00 0.00 0.00 77 1012.1
20260905010105 83 0 0.0 0.0 0.00 0.00 0.00 77 1012.1
20260905010004 83 0 0.0 0.0 0.00 0.00 0.00 76 1012.1
20260905005904 83 0 0.0 0.0 0.00 0.00 0.00 76 1012.0
20260905005804 83 0 0.0 0.0 0.00 0.00 0.00 75 1012.0
20260905005726 83 0 0.0 0.0 0.00 0.00 0.00 75 1012.0
20260905005625 83 0 0.0 0.0 0.00 0.00 0.00 75 1012.0
20260905005525 83 0 0.0 0.0 0.00 0.00 0.00 75 1012.0
20260905005404 84 0 0.0 0.0 0.00 0.00 0.00 75 1012.0
20260905005306 84 0 0.0 0.0 0.00 0.00 0.00 75 1012.0
20260905005204 84 0 0.0 0.0 0.00 0.00 0.00 74 1012.0
20260905005125 84 0 0.0 0.0 0.00 0.00 0.00 74 1012.0
20260905005004 84 0 0.0 0.0 0.00 0.00 0.00 74 1012.0
20260905004905 84 0 0.0 0.0 0.00 0.00 0.00 74 1012.0
20260905004804 84 0 0.0 0.0 0.00 0.00 0.00 74 1012.0
20260905004704 84 0 0.0 0.0 0.00 0.00 0.00 73 1012.0
20260905004606 84 0 0.0 0.0 0.00 0.00 0.00 73 1012.0
20260905004504 84 0 0.0 0.0 0.00 0.00 0.00 74 1012.0
20260905004403 85 0 0.0 0.0 0.00 0.00 0.00 74 1012.0
20260905004326 85 0 0.0 0.0 0.00 0.00 0.00 73 1012.0
20260905004225 85 0 0.0 0.0 0.00 0.00 0.00 73 1012.0
20260905004103 85 0 0.0 0.0 0.00 0.00 0.00 73 1012.0
20260905004004 85 0 0.0 0.0 0.00 0.00 0.00 73 1012.0
20260905003904 85 0 0.0 0.0 0.00 0.00 0.00 73 1012.0
20260905003804 85 0 0.0 0.0 0.00 0.00 0.00 73 1012.0
20260905003705 85 0 0.0 0.0 0.00 0.00 0.00 73 1012.0
20260905003604 85 0 0.0 0.0 0.00 0.00 0.00 73 1012.0
20260905003504 86 0 0.0 0.0 0.00 0.00 0.00 73 1012.0
20260905003404 86 0 0.0 0.0 0.00 0.00 0.00 72 1012.0
20260905003304 86 0 0.0 0.0 0.00 0.00 0.00 72 1012.0
20260905003203 86 0 0.0 0.0 0.00 0.00 0.00 72 1012.0
20260905003104 86 0 0.0 0.0 0.00 0.00 0.00 72 1012.0
20260905003005 86 0 0.0 0.0 0.00 0.00 0.00 72 1012.0
20260905002905 86 0 0.0 0.0 0.00 0.00 0.00 72 1011.6
20260905002826 86 0 0.0 0.0 0.00 0.00 0.00 72 1011.6
20260905002704 86 0 0.0 0.0 0.00 0.00 0.00 71 1011.6
20260905002625 86 0 0.0 0.0 0.00 0.00 0.00 71 1011.6
20260905002505 86 0 0.0 0.0 0.00 0.00 0.00 70 1011.6
20260905002405 87 0 0.0 0.0 0.00 0.00 0.00 70 1011.6
20260905002326 87 0 0.0 0.0 0.00 0.00 0.00 70 1011.6
20260905002205 87 0 0.0 0.0 0.00 0.00 0.00 71 1011.6
20260905002126 87 0 0.0 0.0 0.00 0.00 0.00 71 1011.6
20260905002004 87 0 0.0 0.0 0.00 0.00 0.00 71 1011.6
20260905001904 87 0 0.0 0.0 0.00 0.00 0.00 70 1011.6
20260905001804 88 0 0.0 0.0 0.00 0.00 0.00 69 1011.6
20260905001704 88 0 0.0 0.0 0.00 0.00 0.00 69 1011.6
20260905001625 88 0 0.0 0.0 0.00 0.00 0.00 69 1011.6
20260905001505 88 0 0.0 0.0 0.00 0.00 0.00 69 1011.6
20260905001405 88 0 0.0 0.0 0.00 0.00 0.00 68 1011.9
20260905001305 88 0 0.0 0.0 0.00 0.00 0.00 68 1011.9
20260905001225 88 0 0.0 0.0 0.00 0.00 0.00 68 1011.9
20260905001104 88 0 0.0 0.0 0.00 0.00 0.00 67 1011.9
20260905001004 89 0 0.0 0.0 0.00 0.00 0.00 67 1011.9
20260905000925 89 0 0.0 0.0 0.00 0.00 0.00 66 1011.9
20260905000804 89 0 0.0 0.0 0.00 0.00 0.00 66 1011.9
20260905000704 89 0 0.0 0.0 0.00 0.00 0.00 65 1011.9
20260905000604 90 0 0.0 0.0 0.00 0.00 0.00 64 1011.9
20260905000504 90 0 0.0 0.0 0.00 0.00 0.00 62 1011.9
20260905000425 90 0 0.0 0.0 0.00 0.00 0.00 62 1011.9
20260905000304 90 0 0.0 0.0 0.00 0.00 0.00 62 1011.9
20260905000204 90 0 0.0 0.0 0.00 0.00 0.00 61 1011.9
20260905000104 91 0 0.0 0.0 0.00 0.00 0.00 62 1011.9
20260905000004 91 0 0.0 0.0 0.00 0.00 0.00 61 1011.9
20260904235904 91 0 0.0 0.0 0.00 0.00 0.00 61 1011.9
20260904235804 91 0 0.0 0.0 0.00 0.00 0.00 61 1011.9
20260904235704 92 0 0.0 0.0 0.00 0.00 0.00 61 1011.9
20260904235625 92 0 0.0 0.0 0.00 0.00 0.00 61 1011.9
20260904235505 92 0 0.0 0.0 0.00 0.00 0.00 60 1011.9
20260904235404 92 0 0.0 0.0 0.00 0.00 0.00 59 1011.9
20260904235306 93 0 0.0 0.0 0.00 0.00 0.00 58 1011.9
20260904235204 93 0 0.0 0.0 0.00 0.00 0.00 58 1011.9
20260904235105 93 0 0.0 0.0 0.00 0.00 0.00 59 1011.9
20260904235004 94 0 0.0 0.0 0.00 0.00 0.00 59 1011.9
20260904234905 94 0 0.0 0.0 0.00 0.00 0.00 58 1011.9
20260904234804 94 0 0.0 0.0 0.00 0.00 0.00 58 1011.9
20260904234704 94 0 0.0 0.0 0.00 0.00 0.00 56 1011.9
20260904234604 95 0 0.0 0.0 0.00 0.00 0.00 56 1011.9
20260904234526 95 0 0.0 0.0 0.00 0.00 0.00 56 1011.9
20260904234405 95 0 0.0 0.0 0.00 0.00 0.00 56 1012.0
20260904234326 96 0 0.0 0.0 0.00 0.00 0.00 56 1012.0
20260904234225 96 0 0.0 0.0 0.00 0.00 0.00 55 1012.0
20260904234104 96 0 0.0 0.0 0.00 0.00 0.00 55 1012.0
20260904234025 96 0 0.0 0.0 0.00 0.00 0.00 55 1012.0
20260904233905 96 0 0.0 0.0 0.00 0.00 0.00 55 1012.0
20260904233804 97 0 0.0 0.0 0.00 0.00 0.00 56 1012.0
20260904233705 97 0 0.0 0.0 0.00 0.00 0.00 56 1012.0
20260904233604 97 0 0.0 0.0 0.00 0.00 0.00 54 1012.0
20260904233525 97 0 0.0 0.0 0.00 0.00 0.00 54 1012.0
20260904233405 98 0 0.0 0.0 0.00 0.00 0.00 53 1012.0
20260904233325 98 0 0.0 0.0 0.00 0.00 0.00 52 1012.0
20260904233204 98 0 0.0 0.0 0.00 0.00 0.00 51 1012.0
20260904233104 98 0 0.0 0.0 0.00 0.00 0.00 51 1012.0
20260904233005 98 0 0.0 0.0 0.00 0.00 0.00 51 1012.0
20260904232904 98 0 0.0 0.0 0.00 0.00 0.00 50 1012.0
20260904232804 98 0 0.0 0.0 0.00 0.00 0.00 50 1012.0
20260904232704 98 0 0.0 0.0 0.00 0.00 0.00 50 1012.0
20260904232626 98 0 0.0 0.0 0.00 0.00 0.00 48 1012.0
20260904232504 98 0 0.0 0.0 0.00 0.00 0.00 49 1012.0
20260904232405 98 0 0.0 0.0 0.00 0.00 0.00 50 1012.0
20260904232306 98 0 0.0 0.0 0.00 0.00 0.00 51 1012.0
20260904232204 98 0 0.0 0.0 0.00 0.00 0.00 50 1012.0
20260904232103 98 0 0.0 0.0 0.00 0.00 0.00 50 1012.0
20260904232004 98 0 0.0 0.0 0.00 0.00 0.00 51 1012.0
20260904231904 98 0 0.0 0.0 0.00 0.00 0.00 51 1012.0
20260904231804 98 0 0.0 0.0 0.00 0.00 0.00 50 1012.0
20260904231705 98 0 0.0 0.0 0.00 0.00 0.00 50 1012.0
20260904231605 98 0 0.0 0.0 0.00 0.00 0.00 51 1012.0
20260904231504 98 0 0.0 0.0 0.00 0.00 0.00 51 1012.0
20260904231404 97 0 0.0 0.0 0.00 0.00 0.00 51 1012.0
20260904231304 97 0 0.0 0.0 0.00 0.00 0.00 51 1012.0
20260904231203 97 0 0.0 0.0 0.00 0.00 0.00 51 1012.0
20260904231125 97 0 0.0 0.0 0.00 0.00 0.00 51 1012.0
20260904231005 96 0 0.0 0.0 0.00 0.00 0.00 53 1012.0
20260904230904 96 0 0.0 0.0 0.00 0.00 0.00 53 1012.0
20260904230803 96 0 0.0 0.0 0.00 0.00 0.00 53 1012.0
20260904230705 96 0 0.0 0.0 0.00 0.00 0.00 52 1012.0
20260904230625 96 0 0.0 0.0 0.00 0.00 0.00 52 1012.0
20260904230504 96 0 0.0 0.0 0.00 0.00 0.00 51 1012.0
20260904230425 96 0 0.0 0.0 0.00 0.00 0.00 51 1012.0
20260904230304 96 0 0.0 0.0 0.00 0.00 0.00 50 1012.0
20260904230205 96 0 0.0 0.0 0.00 0.00 0.00 50 1012.0
20260904230104 96 0 0.0 0.0 0.00 0.00 0.00 50 1012.0
20260904230005 96 0 0.0 0.0 0.00 0.00 0.00 50 1012.0
20260904225904 96 0 0.0 0.0 0.00 0.00 0.00 50 1012.0
20260904225825 96 0 0.0 0.0 0.00 0.00 0.00 50 1012.0
20260904225704 97 0 0.0 0.0 0.00 0.00 0.00 50 1012.0
20260904225605 97 0 0.0 0.0 0.00 0.00 0.00 50 1012.0
20260904225525 97 318 0.0 1.0 0.00 0.00 0.00 49 1012.0
20260904225425 98 299 0.0 1.0 0.00 0.00 0.00 48 1012.0
20260904225305 98 279 0.0 3.0 0.00 0.00 0.00 48 1012.0
20260904225205 98 278 0.0 3.0 0.00 0.00 0.00 47 1012.0
20260904225125 98 278 0.0 3.0 0.00 0.00 0.00 47 1012.0
20260904225004 98 278 0.0 3.0 0.00 0.00 0.00 47 1012.0
20260904224905 98 279 0.0 3.0 0.00 0.00 0.00 46 1012.0
20260904224804 98 280 0.0 3.0 0.00 0.00 0.00 47 1012.0
20260904224704 99 281 0.0 3.0 0.00 0.00 0.00 47 1012.0
20260904224604 99 281 0.0 3.0 0.00 0.00 0.00 45 1012.0
20260904224503 99 281 0.0 3.0 0.00 0.00 0.00 45 1012.0
20260904224405 99 282 0.0 3.0 0.00 0.00 0.00 44 1012.0
20260904224305 99 286 0.0 2.0 0.00 0.00 0.00 45 1012.0
20260904224204 99 286 0.0 2.0 0.00 0.00 0.00 46 1012.0
20260904224104 99 287 0.0 2.0 0.00 0.00 0.00 46 1012.0
20260904224025 99 287 0.0 2.0 0.00 0.00 0.00 46 1012.0
20260904223925 99 291 0.0 2.0 0.00 0.00 0.00 45 1012.0
20260904223805 99 301 0.0 2.0 0.00 0.00 0.00 45 1012.0
20260904223705 99 302 0.0 2.0 0.00 0.00 0.00 45 1012.0
20260904223604 99 304 1.0 2.0 0.00 0.00 0.00 45 1012.0
20260904223504 99 304 1.0 2.0 0.00 0.00 0.00 45 1012.0
20260904223405 99 300 1.0 3.0 0.00 0.00 0.00 45 1012.0
20260904223305 99 303 1.0 3.0 0.00 0.00 0.00 44 1012.0
20260904223225 99 307 1.0 3.0 0.00 0.00 0.00 45 1012.0
20260904223105 99 304 1.0 4.0 0.00 0.00 0.00 45 1012.0
20260904223004 99 297 1.0 5.0 0.00 0.00 0.00 45 1012.0
20260904222905 99 286 1.0 5.0 0.00 0.00 0.00 45 1012.0
20260904222826 99 283 1.0 5.0 0.00 0.00 0.00 45 1012.0
20260904222704 99 283 1.0 5.0 0.00 0.00 0.00 45 1012.0
20260904222604 99 281 1.0 5.0 0.00 0.00 0.00 44 1012.0
20260904222505 99 281 1.0 5.0 0.00 0.00 0.00 44 1012.0
20260904222425 99 281 1.0 5.0 0.00 0.00 0.00 44 1012.0
20260904222306 99 281 1.0 5.0 0.00 0.00 0.00 44 1012.0
20260904222225 99 280 1.0 5.0 0.00 0.00 0.00 43 1012.0
20260904222125 99 280 1.0 5.0 0.00 0.00 0.00 43 1012.0
20260904222004 99 282 1.0 5.0 0.00 0.00 0.00 43 1012.0
20260904221904 99 290 1.0 3.0 0.00 0.00 0.00 44 1012.0
20260904221804 99 290 1.0 3.0 0.00 0.00 0.00 43 1012.0
20260904221705 99 289 1.0 3.0 0.00 0.00 0.00 43 1012.0
20260904221605 99 288 1.0 3.0 0.00 0.00 0.00 44 1012.0
20260904221505 99 286 1.0 3.0 0.00 0.00 0.00 43 1012.0
20260904221405 99 285 1.0 3.0 0.00 0.00 0.00 43 1012.0
20260904221326 99 286 1.0 3.0 0.00 0.00 0.00 43 1012.0
20260904221205 99 287 1.0 3.0 0.00 0.00 0.00 45 1012.0
20260904221104 99 287 1.0 3.0 0.00 0.00 0.00 45 1012.0
20260904221004 99 287 1.0 3.0 0.00 0.00 0.00 45 1012.0
20260904220904 99 288 1.0 3.0 0.00 0.00 0.00 46 1012.0
20260904220804 99 289 1.0 3.0 0.00 0.00 0.00 44 1012.0
20260904220704 99 291 1.0 3.0 0.00 0.00 0.00 44 1012.0
20260904220604 99 288 1.0 3.0 0.00 0.00 0.00 43 1012.0
20260904220505 100 289 1.0 3.0 0.00 0.00 0.00 43 1012.0
20260904220404 100 289 1.0 3.0 0.00 0.00 0.00 43 1012.0
20260904220304 100 290 1.0 3.0 0.00 0.00 0.00 43 1012.0
20260904220204 100 290 1.0 3.0 0.00 0.00 0.00 44 1012.0
20260904220104 100 289 1.0 3.0 0.00 0.00 0.00 44 1012.0
20260904220004 100 289 1.0 3.0 0.00 0.00 0.00 44 1012.0
20260904215926 100 292 1.0 3.0 0.00 0.00 0.00 45 1012.0
20260904215805 100 301 1.0 3.0 0.00 0.00 0.00 43 1012.0
20260904215704 100 301 1.0 3.0 0.00 0.00 0.00 42 1012.0
20260904215605 100 313 1.0 2.0 0.00 0.00 0.00 43 1012.0
20260904215505 100 308 1.0 4.0 0.00 0.00 0.00 44 1012.0
20260904215405 100 306 1.0 4.0 0.00 0.00 0.00 44 1012.0
20260904215305 99 303 1.0 4.0 0.00 0.00 0.00 46 1012.0
20260904215203 99 298 1.0 4.0 0.00 0.00 0.00 43 1012.0
20260904215103 99 298 1.0 4.0 0.00 0.00 0.00 43 1012.0
20260904215004 99 294 1.0 4.0 0.00 0.00 0.00 43 1012.0
20260904214904 99 289 1.0 4.0 0.00 0.00 0.00 45 1012.0
20260904214803 99 287 1.0 4.0 0.00 0.00 0.00 45 1012.0
20260904214704 99 284 1.0 4.0 0.00 0.00 0.00 45 1012.0
20260904214604 99 284 1.0 4.0 0.00 0.00 0.00 44 1012.0
20260904214525 99 288 1.0 3.0 0.00 0.00 0.00 44 1012.0